| time (UTC) | temp F | wind direction | speed MPH | gust MPH | rain 1hr in | rain 24hr in | rain mn in | humidity % | barometer mb |
| 20260510060153 | 57 | 45 | 4.0 | 5.0 | 0.00 | 0.00 | 0.00 | 71 | 1016.3 |
| 20260510060010 | 57 | 112 | 4.0 | 7.0 | 0.00 | 0.00 | 0.00 | 72 | 1016.3 |
| 20260510055825 | 57 | 90 | 4.0 | 7.0 | 0.00 | 0.00 | 0.00 | 74 | 1016.3 |
| 20260510055626 | 57 | 68 | 4.0 | 7.0 | 0.00 | 0.00 | 0.00 | 75 | 1016.4 |
| 20260510055450 | 57 | 90 | 3.0 | 6.0 | 0.00 | 0.00 | 0.00 | 72 | 1016.4 |
| 20260510055255 | 58 | 90 | 4.0 | 6.0 | 0.00 | 0.00 | 0.00 | 74 | 1016.4 |
| 20260510055115 | 58 | 90 | 4.0 | 6.0 | 0.00 | 0.00 | 0.00 | 74 | 1016.4 |
| 20260510054934 | 58 | 112 | 4.0 | 6.0 | 0.00 | 0.00 | 0.00 | 72 | 1016.4 |
| 20260510054745 | 58 | 68 | 4.0 | 6.0 | 0.00 | 0.00 | 0.00 | 69 | 1016.5 |
| 20260510054545 | 57 | 90 | 4.0 | 8.0 | 0.00 | 0.00 | 0.00 | 72 | 1016.5 |
| 20260510054400 | 57 | 90 | 4.0 | 8.0 | 0.00 | 0.00 | 0.00 | 72 | 1016.6 |
| 20260510054220 | 57 | 68 | 4.0 | 8.0 | 0.00 | 0.00 | 0.00 | 71 | 1016.5 |
| 20260510054030 | 57 | 45 | 4.0 | 5.0 | 0.00 | 0.00 | 0.00 | 71 | 1016.5 |
| 20260510053833 | 56 | 68 | 4.0 | 5.0 | 0.00 | 0.00 | 0.00 | 74 | 1016.5 |
| 20260510053640 | 56 | 90 | 3.0 | 6.0 | 0.00 | 0.00 | 0.00 | 73 | 1016.6 |
| 20260510053445 | 56 | 90 | 3.0 | 6.0 | 0.00 | 0.00 | 0.00 | 74 | 1016.5 |
| 20260510053250 | 55 | 45 | 3.0 | 6.0 | 0.00 | 0.00 | 0.00 | 74 | 1016.5 |
| 20260510053106 | 55 | 90 | 3.0 | 5.0 | 0.00 | 0.00 | 0.00 | 75 | 1016.5 |
| 20260510052912 | 55 | 90 | 3.0 | 3.0 | 0.00 | 0.00 | 0.00 | 74 | 1016.6 |
| 20260510052724 | 55 | 68 | 3.0 | 5.0 | 0.00 | 0.00 | 0.00 | 74 | 1016.6 |
| 20260510052525 | 55 | 68 | 3.0 | 6.0 | 0.00 | 0.00 | 0.00 | 76 | 1016.5 |
| 20260510052342 | 54 | 90 | 3.0 | 6.0 | 0.00 | 0.00 | 0.00 | 78 | 1016.5 |
| 20260510052159 | 54 | 112 | 3.0 | 6.0 | 0.00 | 0.00 | 0.00 | 79 | 1016.6 |
| 20260510052012 | 54 | 68 | 3.0 | 5.0 | 0.00 | 0.00 | 0.00 | 76 | 1016.6 |
| 20260510051835 | 54 | 90 | 3.0 | 5.0 | 0.00 | 0.00 | 0.00 | 75 | 1016.5 |
| 20260510051654 | 54 | 90 | 3.0 | 5.0 | 0.00 | 0.00 | 0.00 | 77 | 1016.6 |
| 20260510051500 | 53 | 68 | 3.0 | 5.0 | 0.00 | 0.00 | 0.00 | 78 | 1016.5 |
| 20260510051330 | 53 | 68 | 3.0 | 5.0 | 0.00 | 0.00 | 0.00 | 78 | 1016.5 |
| 20260510051305 | 53 | 68 | 3.0 | 5.0 | 0.00 | 0.00 | 0.00 | 78 | 1016.5 |
| 20260510051109 | 53 | 90 | 3.0 | 5.0 | 0.00 | 0.00 | 0.00 | 79 | 1016.5 |
| 20260510050912 | 53 | 90 | 4.0 | 5.0 | 0.00 | 0.00 | 0.00 | 80 | 1016.4 |
| 20260510050715 | 53 | 68 | 3.0 | 5.0 | 0.00 | 0.00 | 0.00 | 80 | 1016.3 |
| 20260510050513 | 53 | 45 | 3.0 | 7.0 | 0.00 | 0.00 | 0.00 | 81 | 1016.4 |
| 20260510050320 | 53 | 68 | 3.0 | 7.0 | 0.00 | 0.00 | 0.00 | 82 | 1016.3 |
| 20260510050140 | 53 | 68 | 3.0 | 7.0 | 0.00 | 0.00 | 0.00 | 81 | 1016.3 |
| 20260510045955 | 52 | 68 | 2.0 | 4.0 | 0.00 | 0.00 | 0.00 | 82 | 1016.3 |
| 20260510045815 | 52 | 68 | 2.0 | 5.0 | 0.00 | 0.00 | 0.00 | 82 | 1016.4 |
| 20260510045619 | 52 | 68 | 2.0 | 5.0 | 0.00 | 0.00 | 0.00 | 83 | 1016.3 |
| 20260510045554 | 52 | 68 | 2.0 | 5.0 | 0.00 | 0.00 | 0.00 | 83 | 1016.3 |
| 20260510045420 | 52 | 68 | 2.0 | 5.0 | 0.00 | 0.00 | 0.00 | 83 | 1016.3 |
| 20260510045240 | 52 | 90 | 2.0 | 5.0 | 0.00 | 0.00 | 0.00 | 83 | 1016.3 |
| 20260510045039 | 52 | 68 | 1.0 | 5.0 | 0.00 | 0.00 | 0.00 | 83 | 1016.3 |
| 20260510044853 | 51 | 68 | 1.0 | 4.0 | 0.00 | 0.00 | 0.00 | 84 | 1016.4 |
| 20260510044715 | 51 | 68 | 1.0 | 5.0 | 0.00 | 0.00 | 0.00 | 85 | 1016.4 |
| 20260510044524 | 51 | 68 | 1.0 | 5.0 | 0.00 | 0.00 | 0.00 | 86 | 1016.4 |
| 20260510044333 | 51 | 68 | 1.0 | 4.0 | 0.00 | 0.00 | 0.00 | 85 | 1016.4 |
| 20260510044139 | 51 | 68 | 1.0 | 5.0 | 0.00 | 0.00 | 0.00 | 86 | 1016.5 |
| 20260510044004 | 50 | 68 | 1.0 | 5.0 | 0.00 | 0.00 | 0.00 | 88 | 1016.5 |
| 20260510043805 | 50 | 68 | 1.0 | 5.0 | 0.00 | 0.00 | 0.00 | 87 | 1016.6 |
| 20260510043751 | 50 | 68 | 1.0 | 5.0 | 0.00 | 0.00 | 0.00 | 87 | 1016.5 |
| 20260510043605 | 50 | 68 | 1.0 | 3.0 | 0.00 | 0.00 | 0.00 | 88 | 1016.5 |
| 20260510043413 | 49 | 68 | 1.0 | 2.0 | 0.00 | 0.00 | 0.00 | 89 | 1016.6 |
| 20260510043225 | 49 | 68 | 1.0 | 3.0 | 0.00 | 0.00 | 0.00 | 91 | 1016.6 |
| 20260510043045 | 49 | 68 | 1.0 | 3.0 | 0.00 | 0.00 | 0.00 | 91 | 1016.7 |
| 20260510042850 | 48 | 68 | 1.0 | 3.0 | 0.00 | 0.00 | 0.00 | 92 | 1016.6 |
| 20260510042650 | 48 | 68 | 1.0 | 3.0 | 0.00 | 0.00 | 0.00 | 93 | 1016.7 |
| 20260510042514 | 48 | 68 | 2.0 | 3.0 | 0.00 | 0.00 | 0.00 | 93 | 1016.7 |
| 20260510042331 | 47 | 68 | 2.0 | 3.0 | 0.00 | 0.00 | 0.00 | 94 | 1016.7 |
| 20260510042236 | 47 | 68 | 2.0 | 3.0 | 0.00 | 0.00 | 0.00 | 94 | 1016.7 |
| 20260510042143 | 47 | 68 | 2.0 | 5.0 | 0.00 | 0.00 | 0.00 | 95 | 1016.7 |
| 20260510041952 | 47 | 68 | 2.0 | 5.0 | 0.00 | 0.00 | 0.00 | 96 | 1016.8 |
| 20260510041759 | 46 | 68 | 2.0 | 5.0 | 0.00 | 0.00 | 0.00 | 96 | 1016.8 |
| 20260510041611 | 46 | 68 | 1.0 | 3.0 | 0.00 | 0.00 | 0.00 | 97 | 1016.8 |
| 20260510041417 | 46 | 68 | 1.0 | 3.0 | 0.00 | 0.00 | 0.00 | 98 | 1016.8 |
| 20260510041225 | 46 | 68 | 1.0 | 3.0 | 0.00 | 0.00 | 0.00 | 98 | 1016.9 |
| 20260510041030 | 45 | 68 | 0.0 | 2.0 | 0.00 | 0.00 | 0.00 | 99 | 1016.8 |
| 20260510040850 | 45 | 68 | 0.0 | 2.0 | 0.00 | 0.00 | 0.00 | 99 | 1016.9 |
| 20260510040654 | 45 | 0 | 0.0 | 0.0 | 0.00 | 0.00 | 0.00 | 99 | 1016.9 |
| 20260510040502 | 45 | 0 | 0.0 | 0.0 | 0.00 | 0.00 | 0.00 | 99 | 1017.0 |
| 20260510040318 | 45 | 0 | 0.0 | 0.0 | 0.00 | 0.00 | 0.00 | 99 | 1017.0 |
| 20260510040140 | 44 | 0 | 0.0 | 0.0 | 0.00 | 0.00 | 0.00 | 99 | 1017.0 |
| 20260510035950 | 44 | 0 | 0.0 | 0.0 | 0.00 | 0.00 | 0.00 | 99 | 1017.0 |
| 20260510035756 | 44 | 0 | 0.0 | 0.0 | 0.00 | 0.00 | 0.00 | 99 | 1017.0 |
| 20260510035600 | 44 | 0 | 0.0 | 0.0 | 0.00 | 0.00 | 0.00 | 99 | 1017.0 |
| 20260510035403 | 44 | 0 | 0.0 | 0.0 | 0.00 | 0.00 | 0.00 | 99 | 1017.0 |
| 20260510035209 | 44 | 0 | 0.0 | 0.0 | 0.00 | 0.00 | 0.00 | 98 | 1017.0 |
| 20260510035020 | 44 | 0 | 0.0 | 0.0 | 0.00 | 0.00 | 0.00 | 99 | 1017.0 |
| 20260510034834 | 44 | 0 | 0.0 | 0.0 | 0.00 | 0.00 | 0.00 | 99 | 1017.0 |
| 20260510034654 | 44 | 0 | 0.0 | 0.0 | 0.00 | 0.00 | 0.00 | 98 | 1016.9 |
| 20260510034647 | 44 | 0 | 0.0 | 0.0 | 0.00 | 0.00 | 0.00 | 98 | 1017.0 |
| 20260510034515 | 44 | 0 | 0.0 | 0.0 | 0.00 | 0.00 | 0.00 | 98 | 1016.9 |
| 20260510034340 | 44 | 0 | 0.0 | 0.0 | 0.00 | 0.00 | 0.00 | 98 | 1017.0 |
| 20260510034145 | 44 | 0 | 0.0 | 0.0 | 0.00 | 0.00 | 0.00 | 99 | 1017.1 |
| 20260510034000 | 44 | 0 | 0.0 | 0.0 | 0.00 | 0.00 | 0.00 | 98 | 1017.0 |
| 20260510033810 | 44 | 0 | 0.0 | 0.0 | 0.00 | 0.00 | 0.00 | 98 | 1016.9 |
| 20260510033618 | 43 | 0 | 0.0 | 0.0 | 0.00 | 0.00 | 0.00 | 98 | 1016.9 |
| 20260510033425 | 43 | 0 | 0.0 | 0.0 | 0.00 | 0.00 | 0.00 | 98 | 1016.9 |
| 20260510033245 | 43 | 0 | 0.0 | 0.0 | 0.00 | 0.00 | 0.00 | 98 | 1017.0 |
| 20260510033105 | 43 | 0 | 0.0 | 0.0 | 0.00 | 0.00 | 0.00 | 98 | 1017.0 |
| 20260510033031 | 43 | 0 | 0.0 | 0.0 | 0.00 | 0.00 | 0.00 | 98 | 1017.0 |
| 20260510032919 | 43 | 0 | 0.0 | 0.0 | 0.00 | 0.00 | 0.00 | 98 | 1017.0 |
| 20260510032730 | 43 | 0 | 0.0 | 0.0 | 0.00 | 0.00 | 0.00 | 98 | 1017.1 |
| 20260510032545 | 44 | 0 | 0.0 | 0.0 | 0.00 | 0.00 | 0.00 | 98 | 1017.1 |
| 20260510032401 | 44 | 0 | 0.0 | 0.0 | 0.00 | 0.00 | 0.00 | 98 | 1017.3 |
| 20260510032204 | 44 | 0 | 0.0 | 0.0 | 0.00 | 0.00 | 0.00 | 98 | 1017.3 |
| 20260510032005 | 44 | 0 | 0.0 | 0.0 | 0.00 | 0.00 | 0.00 | 98 | 1017.4 |
| 20260510031823 | 44 | 0 | 0.0 | 0.0 | 0.00 | 0.00 | 0.00 | 98 | 1017.3 |
| 20260510031635 | 44 | 0 | 0.0 | 0.0 | 0.00 | 0.00 | 0.00 | 98 | 1017.4 |
| 20260510031448 | 44 | 0 | 0.0 | 0.0 | 0.00 | 0.00 | 0.00 | 98 | 1017.4 |
| 20260510031326 | 44 | 0 | 0.0 | 0.0 | 0.00 | 0.00 | 0.00 | 98 | 1017.4 |
| 20260510031300 | 44 | 0 | 0.0 | 0.0 | 0.00 | 0.00 | 0.00 | 98 | 1017.4 |
| 20260510031105 | 44 | 0 | 0.0 | 0.0 | 0.00 | 0.00 | 0.00 | 98 | 1017.4 |
| 20260510030910 | 44 | 0 | 0.0 | 0.0 | 0.00 | 0.00 | 0.00 | 98 | 1017.3 |
| 20260510030719 | 44 | 0 | 0.0 | 0.0 | 0.00 | 0.00 | 0.00 | 98 | 1017.3 |
| 20260510030535 | 44 | 0 | 0.0 | 0.0 | 0.00 | 0.00 | 0.00 | 98 | 1017.2 |
| 20260510030355 | 44 | 0 | 0.0 | 0.0 | 0.00 | 0.00 | 0.00 | 98 | 1017.3 |
| 20260510030209 | 44 | 0 | 0.0 | 0.0 | 0.00 | 0.00 | 0.00 | 98 | 1017.2 |
| 20260510030026 | 44 | 0 | 0.0 | 0.0 | 0.00 | 0.00 | 0.00 | 98 | 1017.2 |
| 20260510025840 | 44 | 0 | 0.0 | 0.0 | 0.00 | 0.00 | 0.00 | 98 | 1017.2 |
| 20260510025639 | 44 | 0 | 0.0 | 0.0 | 0.00 | 0.00 | 0.00 | 98 | 1017.2 |
| 20260510025434 | 44 | 0 | 0.0 | 0.0 | 0.00 | 0.00 | 0.00 | 98 | 1017.2 |
| 20260510025250 | 44 | 0 | 0.0 | 0.0 | 0.00 | 0.00 | 0.00 | 97 | 1017.2 |
| 20260510025100 | 44 | 0 | 0.0 | 0.0 | 0.00 | 0.00 | 0.00 | 97 | 1017.3 |
| 20260510024905 | 44 | 0 | 0.0 | 0.0 | 0.00 | 0.00 | 0.00 | 97 | 1017.3 |
| 20260510024721 | 45 | 0 | 0.0 | 0.0 | 0.00 | 0.00 | 0.00 | 97 | 1017.3 |
| 20260510024545 | 45 | 0 | 0.0 | 0.0 | 0.00 | 0.00 | 0.00 | 97 | 1017.4 |
| 20260510024403 | 45 | 0 | 0.0 | 0.0 | 0.00 | 0.00 | 0.00 | 97 | 1017.4 |
| 20260510024220 | 45 | 0 | 0.0 | 0.0 | 0.00 | 0.00 | 0.00 | 97 | 1017.3 |
| 20260510024035 | 45 | 0 | 0.0 | 0.0 | 0.00 | 0.00 | 0.00 | 97 | 1017.4 |
| 20260510023835 | 45 | 0 | 0.0 | 0.0 | 0.00 | 0.00 | 0.00 | 97 | 1017.4 |
| 20260510023645 | 45 | 0 | 0.0 | 0.0 | 0.00 | 0.00 | 0.00 | 97 | 1017.3 |
| 20260510023602 | 45 | 0 | 0.0 | 0.0 | 0.00 | 0.00 | 0.00 | 97 | 1017.3 |
| 20260510023448 | 45 | 0 | 0.0 | 0.0 | 0.00 | 0.00 | 0.00 | 97 | 1017.3 |
| 20260510023300 | 45 | 0 | 0.0 | 0.0 | 0.00 | 0.00 | 0.00 | 97 | 1017.3 |
| 20260510023125 | 45 | 0 | 0.0 | 0.0 | 0.00 | 0.00 | 0.00 | 97 | 1017.3 |
| 20260510022936 | 45 | 0 | 0.0 | 2.0 | 0.00 | 0.00 | 0.00 | 97 | 1017.2 |
| 20260510022740 | 45 | 68 | 0.0 | 2.0 | 0.00 | 0.00 | 0.00 | 97 | 1017.2 |
| 20260510022550 | 45 | 0 | 0.0 | 1.0 | 0.00 | 0.00 | 0.00 | 97 | 1017.2 |
| 20260510022410 | 45 | 68 | 0.0 | 0.0 | 0.00 | 0.00 | 0.00 | 97 | 1017.2 |
| 20260510022210 | 45 | 68 | 0.0 | 1.0 | 0.00 | 0.00 | 0.00 | 97 | 1017.3 |
| 20260510022029 | 45 | 68 | 0.0 | 1.0 | 0.00 | 0.00 | 0.00 | 97 | 1017.3 |
| 20260510021850 | 45 | 68 | 0.0 | 1.0 | 0.00 | 0.00 | 0.00 | 97 | 1017.3 |
| 20260510021817 | 45 | 68 | 0.0 | 1.0 | 0.00 | 0.00 | 0.00 | 97 | 1017.3 |
| 20260510021655 | 45 | 68 | 0.0 | 0.0 | 0.00 | 0.00 | 0.00 | 97 | 1017.3 |
| 20260510021513 | 45 | 68 | 0.0 | 2.0 | 0.00 | 0.00 | 0.00 | 97 | 1017.3 |
| 20260510021330 | 45 | 68 | 0.0 | 0.0 | 0.00 | 0.00 | 0.00 | 97 | 1017.3 |
| 20260510021150 | 45 | 68 | 0.0 | 0.0 | 0.00 | 0.00 | 0.00 | 97 | 1017.4 |
| 20260510020954 | 45 | 68 | 1.0 | 2.0 | 0.00 | 0.00 | 0.00 | 97 | 1017.4 |
| 20260510020625 | 45 | 68 | 1.0 | 2.0 | 0.00 | 0.00 | 0.00 | 97 | 1017.3 |
| 20260510020425 | 45 | 90 | 1.0 | 2.0 | 0.00 | 0.00 | 0.00 | 97 | 1017.3 |
| 20260510020250 | 45 | 90 | 0.0 | 2.0 | 0.00 | 0.00 | 0.00 | 97 | 1017.4 |
| 20260510020100 | 45 | 90 | 0.0 | 2.0 | 0.00 | 0.00 | 0.00 | 97 | 1017.5 |
| 20260510015905 | 45 | 0 | 0.0 | 0.0 | 0.00 | 0.00 | 0.00 | 97 | 1017.5 |
| 20260510015730 | 45 | 0 | 0.0 | 0.0 | 0.00 | 0.00 | 0.00 | 97 | 1017.6 |
| 20260510015545 | 45 | 0 | 0.0 | 0.0 | 0.00 | 0.00 | 0.00 | 97 | 1017.6 |
| 20260510015350 | 45 | 0 | 0.0 | 0.0 | 0.00 | 0.00 | 0.00 | 97 | 1017.6 |
| 20260510015154 | 45 | 0 | 0.0 | 0.0 | 0.00 | 0.00 | 0.00 | 97 | 1017.6 |
| 20260510015013 | 45 | 0 | 0.0 | 0.0 | 0.00 | 0.00 | 0.00 | 96 | 1017.6 |
| 20260510014819 | 45 | 0 | 0.0 | 0.0 | 0.00 | 0.00 | 0.00 | 96 | 1017.7 |
| 20260510014635 | 45 | 0 | 0.0 | 0.0 | 0.00 | 0.00 | 0.00 | 97 | 1017.7 |
| 20260510014450 | 46 | 0 | 0.0 | 0.0 | 0.00 | 0.00 | 0.00 | 96 | 1017.8 |
| 20260510014305 | 46 | 0 | 0.0 | 0.0 | 0.00 | 0.00 | 0.00 | 96 | 1017.7 |
| 20260510014115 | 46 | 0 | 0.0 | 0.0 | 0.00 | 0.00 | 0.00 | 97 | 1017.7 |
| 20260510013930 | 46 | 0 | 0.0 | 0.0 | 0.00 | 0.00 | 0.00 | 97 | 1017.7 |
| 20260510013740 | 46 | 0 | 0.0 | 0.0 | 0.00 | 0.00 | 0.00 | 97 | 1017.7 |
| 20260510013555 | 46 | 0 | 0.0 | 0.0 | 0.00 | 0.00 | 0.00 | 96 | 1017.8 |
| 20260510013414 | 46 | 0 | 0.0 | 0.0 | 0.00 | 0.00 | 0.00 | 96 | 1017.8 |
| 20260510013230 | 46 | 90 | 0.0 | 0.0 | 0.00 | 0.00 | 0.00 | 97 | 1017.8 |
| 20260510013050 | 46 | 90 | 0.0 | 2.0 | 0.00 | 0.00 | 0.00 | 96 | 1017.7 |
| 20260510012858 | 46 | 90 | 0.0 | 2.0 | 0.00 | 0.00 | 0.00 | 96 | 1017.7 |
| 20260510012728 | 46 | 90 | 0.0 | 2.0 | 0.00 | 0.00 | 0.00 | 96 | 1017.7 |
| 20260510012535 | 46 | 90 | 0.0 | 1.0 | 0.00 | 0.00 | 0.00 | 97 | 1017.6 |
| 20260510012337 | 46 | 90 | 0.0 | 1.0 | 0.00 | 0.00 | 0.00 | 97 | 1017.6 |
| 20260510012153 | 46 | 90 | 0.0 | 1.0 | 0.00 | 0.00 | 0.00 | 97 | 1017.6 |
| 20260510012010 | 46 | 90 | 0.0 | 1.0 | 0.00 | 0.00 | 0.00 | 97 | 1017.6 |
| 20260510011815 | 46 | 90 | 0.0 | 1.0 | 0.00 | 0.00 | 0.00 | 97 | 1017.7 |
| 20260510011622 | 46 | 90 | 0.0 | 2.0 | 0.00 | 0.00 | 0.00 | 97 | 1017.8 |
| 20260510011429 | 46 | 0 | 0.0 | 2.0 | 0.00 | 0.00 | 0.00 | 97 | 1017.8 |
| 20260510011231 | 46 | 0 | 0.0 | 2.0 | 0.00 | 0.00 | 0.00 | 97 | 1017.9 |
| 20260510011043 | 46 | 0 | 0.0 | 0.0 | 0.00 | 0.00 | 0.00 | 97 | 1018.0 |
| 20260510010845 | 46 | 0 | 0.0 | 0.0 | 0.00 | 0.00 | 0.00 | 97 | 1018.1 |
| 20260510010655 | 46 | 0 | 0.0 | 0.0 | 0.00 | 0.00 | 0.00 | 97 | 1018.1 |
| 20260510010515 | 46 | 0 | 0.0 | 0.0 | 0.00 | 0.00 | 0.00 | 97 | 1018.0 |
| 20260510010325 | 46 | 0 | 0.0 | 0.0 | 0.00 | 0.00 | 0.00 | 97 | 1018.1 |
| 20260510010126 | 46 | 0 | 0.0 | 0.0 | 0.00 | 0.00 | 0.00 | 97 | 1018.1 |
| 20260510005934 | 46 | 0 | 0.0 | 2.0 | 0.00 | 0.00 | 0.00 | 97 | 1018.2 |
| 20260510005750 | 46 | 0 | 0.0 | 2.0 | 0.00 | 0.00 | 0.00 | 98 | 1018.2 |
| 20260510005605 | 46 | 0 | 0.0 | 2.0 | 0.00 | 0.00 | 0.00 | 98 | 1018.2 |
| 20260510005440 | 46 | 0 | 0.0 | 0.0 | 0.00 | 0.00 | 0.00 | 97 | 1018.2 |
| 20260510005406 | 46 | 0 | 0.0 | 0.0 | 0.00 | 0.00 | 0.00 | 97 | 1018.1 |
| 20260510005210 | 46 | 0 | 0.0 | 0.0 | 0.00 | 0.00 | 0.00 | 97 | 1018.2 |
| 20260510005034 | 46 | 90 | 0.0 | 0.0 | 0.00 | 0.00 | 0.00 | 97 | 1018.2 |
| 20260510004645 | 46 | 90 | 1.0 | 0.0 | 0.00 | 0.00 | 0.00 | 97 | 1018.3 |
| 20260510004505 | 46 | 90 | 1.0 | 2.0 | 0.00 | 0.00 | 0.00 | 98 | 1018.4 |
| 20260510004315 | 46 | 90 | 1.0 | 2.0 | 0.00 | 0.00 | 0.00 | 97 | 1018.4 |
| 20260510004115 | 46 | 90 | 1.0 | 2.0 | 0.00 | 0.00 | 0.00 | 97 | 1018.4 |
| 20260510003926 | 46 | 90 | 0.0 | 2.0 | 0.00 | 0.00 | 0.00 | 98 | 1018.5 |
| 20260510003738 | 46 | 0 | 0.0 | 0.0 | 0.00 | 0.00 | 0.00 | 97 | 1018.5 |
| 20260510003540 | 46 | 90 | 0.0 | 0.0 | 0.00 | 0.00 | 0.00 | 97 | 1018.5 |
| 20260510003343 | 46 | 90 | 0.0 | 1.0 | 0.00 | 0.00 | 0.00 | 97 | 1018.6 |
| 20260510003202 | 46 | 90 | 0.0 | 2.0 | 0.00 | 0.00 | 0.00 | 98 | 1018.6 |
| 20260510003010 | 46 | 90 | 0.0 | 2.0 | 0.00 | 0.00 | 0.00 | 98 | 1018.6 |
| 20260510002811 | 46 | 90 | 0.0 | 2.0 | 0.00 | 0.00 | 0.00 | 98 | 1018.6 |
| 20260510002628 | 46 | 0 | 0.0 | 0.0 | 0.00 | 0.00 | 0.00 | 98 | 1018.7 |
| 20260510002434 | 46 | 0 | 0.0 | 0.0 | 0.00 | 0.00 | 0.00 | 98 | 1018.7 |
| 20260510002250 | 46 | 0 | 0.0 | 0.0 | 0.00 | 0.00 | 0.00 | 98 | 1018.7 |
| 20260510002117 | 46 | 90 | 0.0 | 0.0 | 0.00 | 0.00 | 0.00 | 98 | 1018.8 |
| 20260510002050 | 46 | 90 | 0.0 | 0.0 | 0.00 | 0.00 | 0.00 | 98 | 1018.8 |
| 20260510001910 | 46 | 90 | 1.0 | 0.0 | 0.00 | 0.00 | 0.00 | 98 | 1018.8 |
| 20260510001710 | 46 | 90 | 1.0 | 0.0 | 0.00 | 0.00 | 0.00 | 98 | 1018.8 |
| 20260510001525 | 46 | 90 | 1.0 | 3.0 | 0.00 | 0.00 | 0.00 | 98 | 1018.9 |
| 20260510001325 | 45 | 90 | 1.0 | 3.0 | 0.00 | 0.00 | 0.00 | 98 | 1018.9 |
| 20260510001129 | 45 | 90 | 1.0 | 3.0 | 0.00 | 0.00 | 0.00 | 98 | 1018.9 |
| 20260510000940 | 45 | 90 | 0.0 | 2.0 | 0.00 | 0.00 | 0.00 | 98 | 1019.0 |
| 20260510000740 | 45 | 90 | 0.0 | 2.0 | 0.00 | 0.00 | 0.00 | 98 | 1019.0 |
| 20260510000555 | 45 | 90 | 0.0 | 2.0 | 0.00 | 0.00 | 0.00 | 98 | 1019.0 |
| 20260510000411 | 45 | 0 | 0.0 | 1.0 | 0.00 | 0.00 | 0.00 | 98 | 1019.0 |
| 20260510000319 | 45 | 0 | 0.0 | 0.0 | 0.00 | 0.00 | 0.00 | 97 | 1018.9 |
| 20260510000211 | 45 | 0 | 0.0 | 0.0 | 0.00 | 0.00 | 0.00 | 97 | 1019.0 |
| 20260510000013 | 45 | 0 | 0.0 | 0.0 | 0.00 | 0.00 | 0.00 | 97 | 1019.0 |
| 20260509235820 | 45 | 0 | 0.0 | 0.0 | 0.00 | 0.00 | 0.00 | 97 | 1019.1 |
| 20260509235640 | 45 | 0 | 0.0 | 0.0 | 0.00 | 0.00 | 0.00 | 97 | 1019.1 |
| 20260509235445 | 45 | 0 | 0.0 | 0.0 | 0.00 | 0.00 | 0.00 | 97 | 1019.1 |
| 20260509235310 | 45 | 0 | 0.0 | 0.0 | 0.00 | 0.00 | 0.00 | 97 | 1019.0 |
| 20260509235112 | 45 | 0 | 0.0 | 0.0 | 0.00 | 0.00 | 0.00 | 97 | 1019.1 |
| 20260509234915 | 45 | 0 | 0.0 | 0.0 | 0.00 | 0.00 | 0.00 | 97 | 1019.1 |
| 20260509234720 | 45 | 0 | 0.0 | 0.0 | 0.00 | 0.00 | 0.00 | 97 | 1019.1 |
| 20260509234539 | 45 | 0 | 0.0 | 0.0 | 0.00 | 0.00 | 0.00 | 97 | 1019.1 |
| 20260509234522 | 45 | 0 | 0.0 | 0.0 | 0.00 | 0.00 | 0.00 | 97 | 1019.1 |
| 20260509234340 | 45 | 0 | 0.0 | 0.0 | 0.00 | 0.00 | 0.00 | 97 | 1019.1 |
| 20260509234202 | 45 | 0 | 0.0 | 0.0 | 0.00 | 0.00 | 0.00 | 97 | 1019.1 |
| 20260509234025 | 45 | 0 | 0.0 | 0.0 | 0.00 | 0.00 | 0.00 | 97 | 1019.1 |
| 20260509233840 | 45 | 0 | 0.0 | 0.0 | 0.00 | 0.00 | 0.00 | 97 | 1019.1 |
| 20260509233645 | 45 | 0 | 0.0 | 0.0 | 0.00 | 0.00 | 0.00 | 97 | 1019.1 |
| 20260509233505 | 45 | 0 | 0.0 | 0.0 | 0.00 | 0.00 | 0.00 | 97 | 1019.1 |
| 20260509233322 | 45 | 0 | 0.0 | 0.0 | 0.00 | 0.00 | 0.00 | 97 | 1019.2 |
| 20260509233130 | 45 | 0 | 0.0 | 0.0 | 0.00 | 0.00 | 0.00 | 97 | 1019.2 |
| 20260509232952 | 45 | 0 | 0.0 | 0.0 | 0.00 | 0.00 | 0.00 | 97 | 1019.2 |
| 20260509232805 | 45 | 0 | 0.0 | 0.0 | 0.00 | 0.00 | 0.00 | 96 | 1019.2 |
| 20260509232728 | 45 | 0 | 0.0 | 0.0 | 0.00 | 0.00 | 0.00 | 96 | 1019.3 |
| 20260509232625 | 45 | 0 | 0.0 | 0.0 | 0.00 | 0.00 | 0.00 | 96 | 1019.3 |
| 20260509232430 | 45 | 0 | 0.0 | 0.0 | 0.00 | 0.00 | 0.00 | 96 | 1019.3 |
| 20260509232250 | 45 | 0 | 0.0 | 0.0 | 0.00 | 0.00 | 0.00 | 96 | 1019.4 |
| 20260509232105 | 45 | 0 | 0.0 | 0.0 | 0.00 | 0.00 | 0.00 | 96 | 1019.5 |
| 20260509231912 | 45 | 0 | 0.0 | 0.0 | 0.00 | 0.00 | 0.00 | 96 | 1019.4 |
| 20260509231730 | 45 | 0 | 0.0 | 0.0 | 0.00 | 0.00 | 0.00 | 96 | 1019.4 |
| 20260509231535 | 45 | 0 | 0.0 | 0.0 | 0.00 | 0.00 | 0.00 | 97 | 1019.4 |
| 20260509231340 | 46 | 0 | 0.0 | 0.0 | 0.00 | 0.00 | 0.00 | 96 | 1019.5 |
| 20260509231202 | 46 | 0 | 0.0 | 0.0 | 0.00 | 0.00 | 0.00 | 96 | 1019.5 |
| 20260509231006 | 46 | 0 | 0.0 | 0.0 | 0.00 | 0.00 | 0.00 | 96 | 1019.6 |
| 20260509230941 | 46 | 0 | 0.0 | 0.0 | 0.00 | 0.00 | 0.00 | 96 | 1019.5 |
| 20260509230820 | 46 | 0 | 0.0 | 0.0 | 0.00 | 0.00 | 0.00 | 96 | 1019.5 |
| 20260509230630 | 46 | 0 | 0.0 | 0.0 | 0.00 | 0.00 | 0.00 | 96 | 1019.6 |
| 20260509230437 | 46 | 0 | 0.0 | 0.0 | 0.00 | 0.00 | 0.00 | 96 | 1019.6 |
| 20260509230255 | 46 | 0 | 0.0 | 0.0 | 0.00 | 0.00 | 0.00 | 97 | 1019.7 |
| 20260509230100 | 46 | 0 | 0.0 | 0.0 | 0.00 | 0.00 | 0.00 | 96 | 1019.7 |
| 20260509225923 | 46 | 0 | 0.0 | 0.0 | 0.00 | 0.00 | 0.00 | 96 | 1019.8 |
| 20260509225730 | 46 | 0 | 0.0 | 0.0 | 0.00 | 0.00 | 0.00 | 96 | 1019.6 |
| 20260509225532 | 46 | 0 | 0.0 | 0.0 | 0.00 | 0.00 | 0.00 | 96 | 1019.6 |
| 20260509225354 | 46 | 0 | 0.0 | 0.0 | 0.00 | 0.00 | 0.00 | 96 | 1019.7 |
| 20260509225306 | 46 | 0 | 0.0 | 0.0 | 0.00 | 0.00 | 0.00 | 96 | 1019.7 |
| 20260509225155 | 46 | 0 | 0.0 | 0.0 | 0.00 | 0.00 | 0.00 | 96 | 1019.6 |
| 20260509225010 | 45 | 0 | 0.0 | 0.0 | 0.00 | 0.00 | 0.00 | 96 | 1019.6 |
| 20260509224823 | 45 | 0 | 0.0 | 0.0 | 0.00 | 0.00 | 0.00 | 96 | 1019.7 |
| 20260509224635 | 45 | 0 | 0.0 | 0.0 | 0.00 | 0.00 | 0.00 | 96 | 1019.6 |
| 20260509224440 | 45 | 0 | 0.0 | 0.0 | 0.00 | 0.00 | 0.00 | 96 | 1019.6 |
| 20260509224257 | 45 | 0 | 0.0 | 0.0 | 0.00 | 0.00 | 0.00 | 96 | 1019.6 |
| 20260509224100 | 45 | 0 | 0.0 | 0.0 | 0.00 | 0.00 | 0.00 | 96 | 1019.6 |
| 20260509223910 | 45 | 0 | 0.0 | 0.0 | 0.00 | 0.00 | 0.00 | 96 | 1019.7 |
| 20260509223720 | 45 | 0 | 0.0 | 0.0 | 0.00 | 0.00 | 0.00 | 96 | 1019.7 |
| 20260509223636 | 45 | 0 | 0.0 | 0.0 | 0.00 | 0.00 | 0.00 | 96 | 1019.7 |
| 20260509223520 | 45 | 0 | 0.0 | 0.0 | 0.00 | 0.00 | 0.00 | 96 | 1019.6 |
| 20260509223321 | 46 | 0 | 0.0 | 0.0 | 0.00 | 0.00 | 0.00 | 96 | 1019.7 |
| 20260509223135 | 46 | 0 | 0.0 | 0.0 | 0.00 | 0.00 | 0.00 | 95 | 1019.7 |
| 20260509222952 | 46 | 0 | 0.0 | 0.0 | 0.00 | 0.00 | 0.00 | 95 | 1019.7 |
| 20260509222807 | 46 | 0 | 0.0 | 0.0 | 0.00 | 0.00 | 0.00 | 95 | 1019.7 |
| 20260509222612 | 46 | 0 | 0.0 | 0.0 | 0.00 | 0.00 | 0.00 | 95 | 1019.7 |
| 20260509222423 | 46 | 0 | 0.0 | 0.0 | 0.00 | 0.00 | 0.00 | 95 | 1019.8 |
| 20260509222225 | 46 | 0 | 0.0 | 0.0 | 0.00 | 0.00 | 0.00 | 95 | 1019.8 |
| 20260509222027 | 46 | 0 | 0.0 | 0.0 | 0.00 | 0.00 | 0.00 | 96 | 1019.8 |
| 20260509221843 | 46 | 0 | 0.0 | 0.0 | 0.00 | 0.00 | 0.00 | 95 | 1019.7 |
| 20260509221652 | 46 | 0 | 0.0 | 0.0 | 0.00 | 0.00 | 0.00 | 95 | 1019.8 |
| 20260509221452 | 46 | 0 | 0.0 | 0.0 | 0.00 | 0.00 | 0.00 | 94 | 1019.8 |
| 20260509221305 | 46 | 0 | 0.0 | 0.0 | 0.00 | 0.00 | 0.00 | 94 | 1019.7 |
| 20260509221110 | 46 | 0 | 0.0 | 0.0 | 0.00 | 0.00 | 0.00 | 94 | 1019.7 |
| 20260509220918 | 46 | 0 | 0.0 | 0.0 | 0.00 | 0.00 | 0.00 | 94 | 1019.8 |
| 20260509220740 | 46 | 0 | 0.0 | 0.0 | 0.00 | 0.00 | 0.00 | 94 | 1019.8 |
| 20260509220552 | 46 | 0 | 0.0 | 0.0 | 0.00 | 0.00 | 0.00 | 94 | 1019.8 |
| 20260509220416 | 46 | 0 | 0.0 | 0.0 | 0.00 | 0.00 | 0.00 | 94 | 1019.8 |
| 20260509220225 | 46 | 0 | 0.0 | 0.0 | 0.00 | 0.00 | 0.00 | 94 | 1019.9 |
| 20260509220039 | 46 | 0 | 0.0 | 0.0 | 0.00 | 0.00 | 0.00 | 93 | 1019.8 |
| 20260509215855 | 46 | 0 | 0.0 | 0.0 | 0.00 | 0.00 | 0.00 | 94 | 1019.7 |
| 20260509215655 | 46 | 0 | 0.0 | 0.0 | 0.00 | 0.00 | 0.00 | 93 | 1019.8 |
| 20260509215456 | 47 | 0 | 0.0 | 0.0 | 0.00 | 0.00 | 0.00 | 94 | 1019.8 |
| 20260509215306 | 47 | 0 | 0.0 | 0.0 | 0.00 | 0.00 | 0.00 | 94 | 1019.9 |
| 20260509215105 | 47 | 0 | 0.0 | 0.0 | 0.00 | 0.00 | 0.00 | 93 | 1019.8 |
| 20260509214915 | 47 | 0 | 0.0 | 0.0 | 0.00 | 0.00 | 0.00 | 93 | 1019.9 |
| 20260509214718 | 47 | 0 | 0.0 | 0.0 | 0.00 | 0.00 | 0.00 | 93 | 1019.8 |
| 20260509214612 | 47 | 0 | 0.0 | 0.0 | 0.00 | 0.00 | 0.00 | 93 | 1019.8 |
| 20260509214530 | 47 | 0 | 0.0 | 0.0 | 0.00 | 0.00 | 0.00 | 93 | 1019.8 |
| 20260509214350 | 47 | 0 | 0.0 | 0.0 | 0.00 | 0.00 | 0.00 | 93 | 1019.8 |
| 20260509214151 | 47 | 0 | 0.0 | 0.0 | 0.00 | 0.00 | 0.00 | 93 | 1019.8 |
| 20260509214005 | 47 | 0 | 0.0 | 0.0 | 0.00 | 0.00 | 0.00 | 93 | 1019.8 |
| 20260509213815 | 47 | 0 | 0.0 | 0.0 | 0.00 | 0.00 | 0.00 | 92 | 1019.8 |
| 20260509213630 | 47 | 0 | 0.0 | 0.0 | 0.00 | 0.00 | 0.00 | 92 | 1019.9 |
| 20260509213445 | 47 | 0 | 0.0 | 0.0 | 0.00 | 0.00 | 0.00 | 92 | 1019.8 |
| 20260509213305 | 47 | 0 | 0.0 | 0.0 | 0.00 | 0.00 | 0.00 | 92 | 1020.0 |
| 20260509213117 | 47 | 0 | 0.0 | 0.0 | 0.00 | 0.00 | 0.00 | 92 | 1019.9 |
| 20260509212918 | 47 | 0 | 0.0 | 0.0 | 0.00 | 0.00 | 0.00 | 93 | 1019.8 |
| 20260509212716 | 47 | 0 | 0.0 | 0.0 | 0.00 | 0.00 | 0.00 | 93 | 1019.9 |
| 20260509212550 | 47 | 0 | 0.0 | 0.0 | 0.00 | 0.00 | 0.00 | 93 | 1019.9 |
| 20260509212412 | 47 | 0 | 0.0 | 0.0 | 0.00 | 0.00 | 0.00 | 92 | 1020.0 |
| 20260509212215 | 48 | 0 | 0.0 | 0.0 | 0.00 | 0.00 | 0.00 | 92 | 1019.9 |
| 20260509212020 | 48 | 0 | 0.0 | 0.0 | 0.00 | 0.00 | 0.00 | 92 | 1019.9 |
| 20260509211835 | 48 | 0 | 0.0 | 0.0 | 0.00 | 0.00 | 0.00 | 92 | 1019.9 |
| 20260509211640 | 48 | 0 | 0.0 | 0.0 | 0.00 | 0.00 | 0.00 | 92 | 1019.9 |
| 20260509211501 | 48 | 0 | 0.0 | 0.0 | 0.00 | 0.00 | 0.00 | 92 | 1019.8 |
| 20260509211315 | 48 | 0 | 0.0 | 0.0 | 0.00 | 0.00 | 0.00 | 92 | 1019.8 |
| 20260509211130 | 48 | 0 | 0.0 | 0.0 | 0.00 | 0.00 | 0.00 | 92 | 1019.8 |
| 20260509211052 | 48 | 0 | 0.0 | 0.0 | 0.00 | 0.00 | 0.00 | 91 | 1019.9 |
| 20260509210950 | 48 | 0 | 0.0 | 0.0 | 0.00 | 0.00 | 0.00 | 91 | 1019.8 |
| 20260509210804 | 48 | 0 | 0.0 | 0.0 | 0.00 | 0.00 | 0.00 | 91 | 1019.9 |
| 20260509210610 | 48 | 0 | 0.0 | 0.0 | 0.00 | 0.00 | 0.00 | 92 | 1019.8 |
| 20260509210433 | 48 | 0 | 0.0 | 0.0 | 0.00 | 0.00 | 0.00 | 91 | 1019.8 |
| 20260509210240 | 48 | 0 | 0.0 | 0.0 | 0.00 | 0.00 | 0.00 | 91 | 1019.8 |
| 20260509210045 | 48 | 0 | 0.0 | 0.0 | 0.00 | 0.00 | 0.00 | 91 | 1019.8 |
| 20260509205845 | 48 | 0 | 0.0 | 0.0 | 0.00 | 0.00 | 0.00 | 90 | 1019.9 |
| 20260509205649 | 48 | 0 | 0.0 | 0.0 | 0.00 | 0.00 | 0.00 | 89 | 1019.8 |
| 20260509205508 | 48 | 0 | 0.0 | 0.0 | 0.00 | 0.00 | 0.00 | 89 | 1019.9 |
| 20260509205315 | 48 | 0 | 0.0 | 0.0 | 0.00 | 0.00 | 0.00 | 89 | 1019.9 |
| 20260509205221 | 48 | 0 | 0.0 | 0.0 | 0.00 | 0.00 | 0.00 | 89 | 1019.9 |
| 20260509205115 | 48 | 0 | 0.0 | 0.0 | 0.00 | 0.00 | 0.00 | 88 | 1019.9 |
| 20260509204918 | 49 | 0 | 0.0 | 0.0 | 0.00 | 0.00 | 0.00 | 88 | 1020.1 |
| 20260509204735 | 49 | 0 | 0.0 | 0.0 | 0.00 | 0.00 | 0.00 | 88 | 1020.0 |
| 20260509204552 | 49 | 0 | 0.0 | 0.0 | 0.00 | 0.00 | 0.00 | 88 | 1020.0 |
| 20260509204415 | 49 | 0 | 0.0 | 0.0 | 0.00 | 0.00 | 0.00 | 88 | 1020.0 |
| 20260509204231 | 49 | 0 | 0.0 | 0.0 | 0.00 | 0.00 | 0.00 | 88 | 1020.0 |
| 20260509204050 | 49 | 0 | 0.0 | 0.0 | 0.00 | 0.00 | 0.00 | 88 | 1020.0 |
| 20260509203910 | 49 | 0 | 0.0 | 0.0 | 0.00 | 0.00 | 0.00 | 88 | 1020.1 |
| 20260509203725 | 49 | 0 | 0.0 | 0.0 | 0.00 | 0.00 | 0.00 | 87 | 1020.1 |
| 20260509203539 | 49 | 0 | 0.0 | 0.0 | 0.00 | 0.00 | 0.00 | 87 | 1020.0 |
| 20260509203340 | 49 | 0 | 0.0 | 0.0 | 0.00 | 0.00 | 0.00 | 87 | 1020.1 |
| 20260509203200 | 49 | 0 | 0.0 | 0.0 | 0.00 | 0.00 | 0.00 | 86 | 1020.1 |
| 20260509203012 | 49 | 0 | 0.0 | 0.0 | 0.00 | 0.00 | 0.00 | 86 | 1020.2 |
| 20260509202815 | 49 | 0 | 0.0 | 0.0 | 0.00 | 0.00 | 0.00 | 87 | 1020.1 |
| 20260509202620 | 49 | 0 | 0.0 | 0.0 | 0.00 | 0.00 | 0.00 | 86 | 1020.0 |
| 20260509202425 | 49 | 0 | 0.0 | 0.0 | 0.00 | 0.00 | 0.00 | 86 | 1020.0 |
| 20260509202245 | 49 | 0 | 0.0 | 0.0 | 0.00 | 0.00 | 0.00 | 86 | 1020.0 |
| 20260509202050 | 49 | 0 | 0.0 | 0.0 | 0.00 | 0.00 | 0.00 | 86 | 1020.0 |
| 20260509201854 | 49 | 0 | 0.0 | 0.0 | 0.00 | 0.00 | 0.00 | 86 | 1020.1 |
| 20260509201712 | 49 | 0 | 0.0 | 0.0 | 0.00 | 0.00 | 0.00 | 85 | 1020.0 |
| 20260509201530 | 49 | 0 | 0.0 | 0.0 | 0.00 | 0.00 | 0.00 | 84 | 1020.0 |
| 20260509201352 | 50 | 0 | 0.0 | 0.0 | 0.00 | 0.00 | 0.00 | 84 | 1020.0 |
| 20260509201210 | 50 | 0 | 0.0 | 0.0 | 0.00 | 0.00 | 0.00 | 84 | 1020.0 |
| 20260509201012 | 50 | 0 | 0.0 | 0.0 | 0.00 | 0.00 | 0.00 | 84 | 1020.0 |
| 20260509200825 | 50 | 0 | 0.0 | 0.0 | 0.00 | 0.00 | 0.00 | 84 | 1020.0 |
| 20260509200645 | 50 | 0 | 0.0 | 0.0 | 0.00 | 0.00 | 0.00 | 84 | 1020.0 |
| 20260509200456 | 50 | 0 | 0.0 | 0.0 | 0.00 | 0.00 | 0.00 | 84 | 1019.9 |
| 20260509200300 | 50 | 0 | 0.0 | 0.0 | 0.00 | 0.00 | 0.00 | 84 | 1019.9 |
| 20260509200112 | 50 | 0 | 0.0 | 0.0 | 0.00 | 0.00 | 0.00 | 83 | 1020.0 |
| 20260509195914 | 50 | 0 | 0.0 | 0.0 | 0.00 | 0.00 | 0.00 | 84 | 1020.0 |
| 20260509195848 | 50 | 0 | 0.0 | 0.0 | 0.00 | 0.00 | 0.00 | 84 | 1020.0 |
| 20260509195720 | 50 | 0 | 0.0 | 0.0 | 0.00 | 0.00 | 0.00 | 83 | 1020.0 |
| 20260509195545 | 50 | 0 | 0.0 | 0.0 | 0.00 | 0.00 | 0.00 | 83 | 1020.0 |
| 20260509195405 | 50 | 0 | 0.0 | 0.0 | 0.00 | 0.00 | 0.00 | 83 | 1019.9 |
| 20260509195226 | 50 | 0 | 0.0 | 0.0 | 0.00 | 0.00 | 0.00 | 83 | 1019.9 |
| 20260509195030 | 50 | 0 | 0.0 | 0.0 | 0.00 | 0.00 | 0.00 | 83 | 1019.9 |
| 20260509194845 | 51 | 0 | 0.0 | 0.0 | 0.00 | 0.00 | 0.00 | 82 | 1019.9 |
| 20260509194700 | 51 | 0 | 0.0 | 0.0 | 0.00 | 0.00 | 0.00 | 82 | 1019.9 |
| 20260509194520 | 51 | 0 | 0.0 | 0.0 | 0.00 | 0.00 | 0.00 | 80 | 1019.9 |
| 20260509194321 | 51 | 0 | 0.0 | 0.0 | 0.00 | 0.00 | 0.00 | 79 | 1019.9 |
| 20260509194140 | 51 | 0 | 0.0 | 0.0 | 0.00 | 0.00 | 0.00 | 79 | 1019.9 |
| 20260509193943 | 52 | 0 | 0.0 | 0.0 | 0.00 | 0.00 | 0.00 | 79 | 1019.8 |
| 20260509193757 | 52 | 0 | 0.0 | 0.0 | 0.00 | 0.00 | 0.00 | 79 | 1019.9 |
| 20260509193610 | 52 | 0 | 0.0 | 0.0 | 0.00 | 0.00 | 0.00 | 79 | 1019.8 |
| 20260509193425 | 52 | 0 | 0.0 | 0.0 | 0.00 | 0.00 | 0.00 | 79 | 1019.9 |
| 20260509193245 | 52 | 0 | 0.0 | 0.0 | 0.00 | 0.00 | 0.00 | 79 | 1019.8 |
| 20260509193055 | 52 | 0 | 0.0 | 0.0 | 0.00 | 0.00 | 0.00 | 78 | 1019.9 |
| 20260509192907 | 52 | 0 | 0.0 | 0.0 | 0.00 | 0.00 | 0.00 | 79 | 1019.8 |
| 20260509192715 | 53 | 0 | 0.0 | 0.0 | 0.00 | 0.00 | 0.00 | 78 | 1019.8 |
| 20260509192618 | 53 | 0 | 0.0 | 0.0 | 0.00 | 0.00 | 0.00 | 78 | 1019.8 |
| 20260509192535 | 53 | 0 | 0.0 | 0.0 | 0.00 | 0.00 | 0.00 | 78 | 1019.8 |
| 20260509192345 | 53 | 0 | 0.0 | 0.0 | 0.00 | 0.00 | 0.00 | 77 | 1019.8 |
| 20260509192150 | 53 | 0 | 0.0 | 0.0 | 0.00 | 0.00 | 0.00 | 76 | 1019.7 |
| 20260509191958 | 53 | 0 | 0.0 | 0.0 | 0.00 | 0.00 | 0.00 | 76 | 1019.8 |
| 20260509191812 | 54 | 0 | 0.0 | 0.0 | 0.00 | 0.00 | 0.00 | 76 | 1019.7 |
| 20260509191631 | 54 | 0 | 0.0 | 0.0 | 0.00 | 0.00 | 0.00 | 75 | 1019.6 |
| 20260509191450 | 54 | 0 | 0.0 | 0.0 | 0.00 | 0.00 | 0.00 | 75 | 1019.7 |
| 20260509191255 | 54 | 0 | 0.0 | 0.0 | 0.00 | 0.00 | 0.00 | 74 | 1019.7 |
| 20260509191115 | 55 | 0 | 0.0 | 0.0 | 0.00 | 0.00 | 0.00 | 74 | 1019.7 |
| 20260509190914 | 55 | 0 | 0.0 | 0.0 | 0.00 | 0.00 | 0.00 | 73 | 1019.8 |
| 20260509190832 | 55 | 0 | 0.0 | 0.0 | 0.00 | 0.00 | 0.00 | 72 | 1019.8 |
| 20260509190725 | 55 | 0 | 0.0 | 0.0 | 0.00 | 0.00 | 0.00 | 72 | 1019.8 |
| 20260509190532 | 56 | 0 | 0.0 | 0.0 | 0.00 | 0.00 | 0.00 | 71 | 1019.7 |
| 20260509190350 | 56 | 0 | 0.0 | 0.0 | 0.00 | 0.00 | 0.00 | 70 | 1019.7 |
| 20260509190150 | 56 | 0 | 0.0 | 0.0 | 0.00 | 0.00 | 0.00 | 70 | 1019.7 |
| 20260509190006 | 57 | 0 | 0.0 | 0.0 | 0.00 | 0.00 | 0.00 | 69 | 1019.7 |
| 20260509185805 | 57 | 0 | 0.0 | 0.0 | 0.00 | 0.00 | 0.00 | 67 | 1019.7 |
| 20260509185610 | 57 | 90 | 0.0 | 0.0 | 0.00 | 0.00 | 0.00 | 67 | 1019.6 |
| 20260509185424 | 58 | 90 | 0.0 | 0.0 | 0.00 | 0.00 | 0.00 | 66 | 1019.6 |
| 20260509185218 | 58 | 90 | 1.0 | 0.0 | 0.00 | 0.00 | 0.00 | 66 | 1019.5 |
| 20260509185045 | 58 | 90 | 1.0 | 1.0 | 0.00 | 0.00 | 0.00 | 64 | 1019.5 |
| 20260509184905 | 58 | 90 | 1.0 | 1.0 | 0.00 | 0.00 | 0.00 | 63 | 1019.5 |
| 20260509184705 | 59 | 90 | 1.0 | 1.0 | 0.00 | 0.00 | 0.00 | 62 | 1019.4 |
| 20260509184520 | 59 | 90 | 2.0 | 2.0 | 0.00 | 0.00 | 0.00 | 62 | 1019.5 |
| 20260509184332 | 59 | 90 | 2.0 | 5.0 | 0.00 | 0.00 | 0.00 | 60 | 1019.5 |
| 20260509184140 | 59 | 90 | 3.0 | 5.0 | 0.00 | 0.00 | 0.00 | 59 | 1019.5 |
| 20260509183958 | 60 | 90 | 3.0 | 5.0 | 0.00 | 0.00 | 0.00 | 59 | 1019.5 |
| 20260509183805 | 60 | 90 | 3.0 | 5.0 | 0.00 | 0.00 | 0.00 | 59 | 1019.5 |
| 20260509183612 | 60 | 90 | 3.0 | 5.0 | 0.00 | 0.00 | 0.00 | 58 | 1019.5 |
| 20260509183425 | 60 | 90 | 3.0 | 5.0 | 0.00 | 0.00 | 0.00 | 57 | 1019.5 |
| 20260509183245 | 60 | 90 | 4.0 | 6.0 | 0.00 | 0.00 | 0.00 | 57 | 1019.5 |
| 20260509183055 | 60 | 90 | 4.0 | 6.0 | 0.00 | 0.00 | 0.00 | 57 | 1019.4 |
| 20260509182912 | 60 | 90 | 4.0 | 6.0 | 0.00 | 0.00 | 0.00 | 56 | 1019.5 |
| 20260509182720 | 60 | 68 | 4.0 | 6.0 | 0.00 | 0.00 | 0.00 | 56 | 1019.5 |
| 20260509182530 | 60 | 68 | 3.0 | 6.0 | 0.00 | 0.00 | 0.00 | 55 | 1019.4 |
| 20260509182350 | 60 | 90 | 4.0 | 5.0 | 0.00 | 0.00 | 0.00 | 55 | 1019.4 |
| 20260509182210 | 60 | 90 | 3.0 | 5.0 | 0.00 | 0.00 | 0.00 | 55 | 1019.4 |
| 20260509182030 | 60 | 90 | 3.0 | 5.0 | 0.00 | 0.00 | 0.00 | 56 | 1019.4 |
| 20260509181858 | 60 | 90 | 3.0 | 5.0 | 0.00 | 0.00 | 0.00 | 55 | 1019.4 |
| 20260509181830 | 60 | 90 | 3.0 | 5.0 | 0.00 | 0.00 | 0.00 | 55 | 1019.4 |
| 20260509181639 | 60 | 90 | 3.0 | 6.0 | 0.00 | 0.00 | 0.00 | 55 | 1019.4 |
| 20260509181445 | 60 | 68 | 3.0 | 6.0 | 0.00 | 0.00 | 0.00 | 54 | 1019.5 |
| 20260509181255 | 61 | 90 | 3.0 | 6.0 | 0.00 | 0.00 | 0.00 | 55 | 1019.4 |
| 20260509181105 | 61 | 68 | 3.0 | 5.0 | 0.00 | 0.00 | 0.00 | 55 | 1019.4 |
| 20260509180910 | 61 | 112 | 3.0 | 5.0 | 0.00 | 0.00 | 0.00 | 55 | 1019.5 |
| 20260509180730 | 61 | 68 | 3.0 | 5.0 | 0.00 | 0.00 | 0.00 | 54 | 1019.5 |
| 20260509180540 | 61 | 90 | 3.0 | 5.0 | 0.00 | 0.00 | 0.00 | 54 | 1019.5 |
| 20260509180350 | 61 | 90 | 3.0 | 5.0 | 0.00 | 0.00 | 0.00 | 54 | 1019.5 |
| 20260509180158 | 61 | 90 | 4.0 | 5.0 | 0.00 | 0.00 | 0.00 | 55 | 1019.5 |
| 20260509180014 | 61 | 90 | 4.0 | 5.0 | 0.00 | 0.00 | 0.00 | 54 | 1019.5 |
| 20260509180003 | 61 | 90 | 4.0 | 5.0 | 0.00 | 0.00 | 0.00 | 54 | 1019.5 |
| 20260509175835 | 61 | 68 | 4.0 | 5.0 | 0.00 | 0.00 | 0.00 | 54 | 1019.5 |
| 20260509175648 | 61 | 68 | 4.0 | 5.0 | 0.00 | 0.00 | 0.00 | 53 | 1019.5 |
| 20260509175508 | 61 | 90 | 3.0 | 6.0 | 0.00 | 0.00 | 0.00 | 54 | 1019.5 |
| 20260509175320 | 61 | 90 | 3.0 | 6.0 | 0.00 | 0.00 | 0.00 | 53 | 1019.6 |
| 20260509175140 | 61 | 68 | 3.0 | 6.0 | 0.00 | 0.00 | 0.00 | 53 | 1019.5 |
| 20260509174950 | 61 | 45 | 2.0 | 6.0 | 0.00 | 0.00 | 0.00 | 53 | 1019.5 |
| 20260509174751 | 61 | 112 | 2.0 | 4.0 | 0.00 | 0.00 | 0.00 | 53 | 1019.5 |
| 20260509174552 | 61 | 68 | 3.0 | 5.0 | 0.00 | 0.00 | 0.00 | 53 | 1019.5 |
| 20260509174405 | 61 | 68 | 3.0 | 5.0 | 0.00 | 0.00 | 0.00 | 53 | 1019.4 |
| 20260509174319 | 61 | 45 | 4.0 | 9.0 | 0.00 | 0.00 | 0.00 | 53 | 1019.6 |
| 20260509174219 | 61 | 112 | 4.0 | 5.0 | 0.00 | 0.00 | 0.00 | 53 | 1019.4 |
| 20260509174035 | 61 | 158 | 4.0 | 5.0 | 0.00 | 0.00 | 0.00 | 52 | 1019.5 |
| 20260509173840 | 62 | 90 | 4.0 | 6.0 | 0.00 | 0.00 | 0.00 | 52 | 1019.4 |
| 20260509173702 | 62 | 90 | 4.0 | 6.0 | 0.00 | 0.00 | 0.00 | 52 | 1019.5 |
| 20260509173523 | 62 | 112 | 4.0 | 6.0 | 0.00 | 0.00 | 0.00 | 52 | 1019.4 |
| 20260509173345 | 62 | 90 | 4.0 | 6.0 | 0.00 | 0.00 | 0.00 | 51 | 1019.4 |
| 20260509173145 | 62 | 68 | 4.0 | 6.0 | 0.00 | 0.00 | 0.00 | 51 | 1019.4 |
| 20260509173000 | 62 | 90 | 5.0 | 6.0 | 0.00 | 0.00 | 0.00 | 52 | 1019.4 |
| 20260509172820 | 62 | 0 | 5.0 | 8.0 | 0.00 | 0.00 | 0.00 | 51 | 1019.5 |
| 20260509172632 | 62 | 68 | 4.0 | 8.0 | 0.00 | 0.00 | 0.00 | 51 | 1019.4 |
| 20260509172457 | 63 | 68 | 4.0 | 8.0 | 0.00 | 0.00 | 0.00 | 50 | 1019.4 |
| 20260509172312 | 63 | 68 | 4.0 | 7.0 | 0.00 | 0.00 | 0.00 | 51 | 1019.4 |
| 20260509172120 | 63 | 68 | 3.0 | 6.0 | 0.00 | 0.00 | 0.00 | 51 | 1019.5 |
| 20260509171936 | 63 | 90 | 3.0 | 5.0 | 0.00 | 0.00 | 0.00 | 51 | 1019.5 |
| 20260509171752 | 63 | 45 | 4.0 | 9.0 | 0.00 | 0.00 | 0.00 | 51 | 1019.4 |
| 20260509171553 | 63 | 68 | 4.0 | 9.0 | 0.00 | 0.00 | 0.00 | 50 | 1019.5 |
| 20260509171405 | 63 | 45 | 4.0 | 10.0 | 0.00 | 0.00 | 0.00 | 50 | 1019.4 |
| 20260509171205 | 63 | 68 | 4.0 | 10.0 | 0.00 | 0.00 | 0.00 | 50 | 1019.4 |
| 20260509171012 | 63 | 68 | 4.0 | 10.0 | 0.00 | 0.00 | 0.00 | 50 | 1019.5 |
| 20260509170851 | 63 | 68 | 3.0 | 10.0 | 0.00 | 0.00 | 0.00 | 50 | 1019.4 |
| 20260509170815 | 63 | 68 | 3.0 | 10.0 | 0.00 | 0.00 | 0.00 | 50 | 1019.5 |
| 20260509170624 | 63 | 112 | 2.0 | 10.0 | 0.00 | 0.00 | 0.00 | 51 | 1019.5 |
| 20260509170445 | 62 | 90 | 2.0 | 8.0 | 0.00 | 0.00 | 0.00 | 50 | 1019.6 |
| 20260509170254 | 62 | 90 | 2.0 | 5.0 | 0.00 | 0.00 | 0.00 | 50 | 1019.6 |
| 20260509170104 | 62 | 90 | 2.0 | 4.0 | 0.00 | 0.00 | 0.00 | 51 | 1019.6 |
| 20260509165919 | 62 | 90 | 2.0 | 5.0 | 0.00 | 0.00 | 0.00 | 52 | 1019.6 |
| 20260509165717 | 62 | 90 | 3.0 | 7.0 | 0.00 | 0.00 | 0.00 | 52 | 1019.6 |
| 20260509165536 | 62 | 90 | 3.0 | 7.0 | 0.00 | 0.00 | 0.00 | 52 | 1019.6 |
| 20260509165352 | 62 | 90 | 3.0 | 7.0 | 0.00 | 0.00 | 0.00 | 52 | 1019.6 |
| 20260509165222 | 63 | 68 | 2.0 | 6.0 | 0.00 | 0.00 | 0.00 | 52 | 1019.7 |
| 20260509165155 | 63 | 68 | 2.0 | 6.0 | 0.00 | 0.00 | 0.00 | 52 | 1019.7 |
| 20260509165010 | 63 | 68 | 2.0 | 6.0 | 0.00 | 0.00 | 0.00 | 52 | 1019.7 |
| 20260509164820 | 63 | 68 | 2.0 | 6.0 | 0.00 | 0.00 | 0.00 | 51 | 1019.7 |
| 20260509164640 | 63 | 68 | 1.0 | 4.0 | 0.00 | 0.00 | 0.00 | 52 | 1019.7 |
| 20260509164505 | 63 | 68 | 2.0 | 4.0 | 0.00 | 0.00 | 0.00 | 51 | 1019.7 |
| 20260509164320 | 63 | 68 | 2.0 | 2.0 | 0.00 | 0.00 | 0.00 | 50 | 1019.8 |
| 20260509164125 | 64 | 68 | 2.0 | 5.0 | 0.00 | 0.00 | 0.00 | 50 | 1019.7 |
| 20260509163940 | 64 | 68 | 2.0 | 5.0 | 0.00 | 0.00 | 0.00 | 50 | 1019.7 |
| 20260509163750 | 64 | 90 | 2.0 | 4.0 | 0.00 | 0.00 | 0.00 | 50 | 1019.8 |
| 20260509163610 | 64 | 90 | 2.0 | 4.0 | 0.00 | 0.00 | 0.00 | 50 | 1019.8 |
| 20260509163411 | 64 | 90 | 2.0 | 5.0 | 0.00 | 0.00 | 0.00 | 49 | 1019.9 |
| 20260509163212 | 64 | 68 | 3.0 | 5.0 | 0.00 | 0.00 | 0.00 | 48 | 1019.9 |
| 20260509163030 | 64 | 68 | 3.0 | 5.0 | 0.00 | 0.00 | 0.00 | 48 | 1019.9 |
| 20260509162850 | 64 | 68 | 3.0 | 7.0 | 0.00 | 0.00 | 0.00 | 49 | 1019.8 |
| 20260509162709 | 64 | 68 | 3.0 | 7.0 | 0.00 | 0.00 | 0.00 | 48 | 1020.0 |
| 20260509162520 | 64 | 45 | 3.0 | 7.0 | 0.00 | 0.00 | 0.00 | 49 | 1019.9 |
| 20260509162342 | 64 | 68 | 2.0 | 5.0 | 0.00 | 0.00 | 0.00 | 47 | 1020.0 |
| 20260509162200 | 64 | 68 | 3.0 | 5.0 | 0.00 | 0.00 | 0.00 | 48 | 1019.9 |
| 20260509162014 | 64 | 90 | 3.0 | 5.0 | 0.00 | 0.00 | 0.00 | 47 | 1020.0 |
| 20260509161832 | 64 | 45 | 3.0 | 5.0 | 0.00 | 0.00 | 0.00 | 48 | 1019.9 |
| 20260509161801 | 64 | 45 | 3.0 | 5.0 | 0.00 | 0.00 | 0.00 | 48 | 1020.0 |
| 20260509161635 | 64 | 68 | 3.0 | 5.0 | 0.00 | 0.00 | 0.00 | 48 | 1020.1 |
| 20260509161438 | 64 | 90 | 4.0 | 7.0 | 0.00 | 0.00 | 0.00 | 49 | 1020.1 |
| 20260509161240 | 64 | 68 | 4.0 | 7.0 | 0.00 | 0.00 | 0.00 | 49 | 1020.0 |
| 20260509161050 | 64 | 68 | 4.0 | 7.0 | 0.00 | 0.00 | 0.00 | 49 | 1020.1 |
| 20260509160852 | 64 | 68 | 4.0 | 5.0 | 0.00 | 0.00 | 0.00 | 49 | 1020.0 |
| 20260509160705 | 64 | 90 | 4.0 | 5.0 | 0.00 | 0.00 | 0.00 | 48 | 1020.1 |
| 20260509160525 | 64 | 68 | 4.0 | 9.0 | 0.00 | 0.00 | 0.00 | 49 | 1020.1 |
| 20260509160345 | 64 | 68 | 4.0 | 9.0 | 0.00 | 0.00 | 0.00 | 49 | 1020.1 |
| 20260509160149 | 64 | 68 | 3.0 | 9.0 | 0.00 | 0.00 | 0.00 | 48 | 1020.2 |
| 20260509160005 | 64 | 90 | 2.0 | 5.0 | 0.00 | 0.00 | 0.00 | 48 | 1020.1 |
| 20260509155925 | 64 | 22 | 2.0 | 5.0 | 0.00 | 0.00 | 0.00 | 48 | 1020.2 |
| 20260509155820 | 65 | 22 | 2.0 | 5.0 | 0.00 | 0.00 | 0.00 | 48 | 1020.1 |
| 20260509155622 | 65 | 90 | 2.0 | 5.0 | 0.00 | 0.00 | 0.00 | 48 | 1020.2 |
| 20260509155428 | 65 | 68 | 2.0 | 5.0 | 0.00 | 0.00 | 0.00 | 48 | 1020.2 |
| 20260509155247 | 65 | 90 | 2.0 | 5.0 | 0.00 | 0.00 | 0.00 | 48 | 1020.3 |
| 20260509155105 | 65 | 68 | 1.0 | 2.0 | 0.00 | 0.00 | 0.00 | 46 | 1020.3 |
| 20260509154921 | 64 | 68 | 1.0 | 3.0 | 0.00 | 0.00 | 0.00 | 46 | 1020.3 |
| 20260509154735 | 64 | 68 | 2.0 | 3.0 | 0.00 | 0.00 | 0.00 | 45 | 1020.4 |
| 20260509154548 | 64 | 68 | 2.0 | 2.0 | 0.00 | 0.00 | 0.00 | 45 | 1020.4 |
| 20260509154410 | 64 | 68 | 2.0 | 2.0 | 0.00 | 0.00 | 0.00 | 45 | 1020.5 |
| 20260509154231 | 64 | 68 | 2.0 | 5.0 | 0.00 | 0.00 | 0.00 | 45 | 1020.5 |
| 20260509154210 | 64 | 68 | 2.0 | 5.0 | 0.00 | 0.00 | 0.00 | 45 | 1020.5 |
| 20260509154025 | 64 | 68 | 2.0 | 5.0 | 0.00 | 0.00 | 0.00 | 46 | 1020.4 |
| 20260509153830 | 64 | 68 | 2.0 | 5.0 | 0.00 | 0.00 | 0.00 | 47 | 1020.5 |
| 20260509153632 | 64 | 68 | 1.0 | 6.0 | 0.00 | 0.00 | 0.00 | 46 | 1020.6 |
| 20260509153444 | 64 | 68 | 0.0 | 2.0 | 0.00 | 0.00 | 0.00 | 46 | 1020.5 |
| 20260509153247 | 63 | 68 | 1.0 | 1.0 | 0.00 | 0.00 | 0.00 | 46 | 1020.5 |
| 20260509153050 | 63 | 68 | 2.0 | 1.0 | 0.00 | 0.00 | 0.00 | 45 | 1020.6 |
| 20260509152904 | 63 | 68 | 2.0 | 4.0 | 0.00 | 0.00 | 0.00 | 46 | 1020.7 |
| 20260509152716 | 63 | 68 | 2.0 | 5.0 | 0.00 | 0.00 | 0.00 | 46 | 1020.7 |
| 20260509152533 | 64 | 68 | 3.0 | 5.0 | 0.00 | 0.00 | 0.00 | 46 | 1020.7 |
| 20260509152355 | 64 | 68 | 3.0 | 5.0 | 0.00 | 0.00 | 0.00 | 46 | 1020.7 |
| 20260509152200 | 64 | 68 | 3.0 | 5.0 | 0.00 | 0.00 | 0.00 | 48 | 1020.7 |
| 20260509152010 | 64 | 68 | 3.0 | 5.0 | 0.00 | 0.00 | 0.00 | 46 | 1020.7 |
| 20260509151815 | 64 | 68 | 3.0 | 5.0 | 0.00 | 0.00 | 0.00 | 47 | 1020.7 |
| 20260509151625 | 64 | 90 | 2.0 | 5.0 | 0.00 | 0.00 | 0.00 | 48 | 1020.7 |
| 20260509151430 | 65 | 22 | 2.0 | 5.0 | 0.00 | 0.00 | 0.00 | 46 | 1020.6 |
| 20260509151245 | 65 | 90 | 2.0 | 5.0 | 0.00 | 0.00 | 0.00 | 47 | 1020.7 |
| 20260509151044 | 65 | 68 | 1.0 | 6.0 | 0.00 | 0.00 | 0.00 | 46 | 1020.7 |
| 20260509150911 | 64 | 68 | 1.0 | 5.0 | 0.00 | 0.00 | 0.00 | 47 | 1020.7 |
| 20260509150850 | 64 | 68 | 1.0 | 5.0 | 0.00 | 0.00 | 0.00 | 47 | 1020.7 |
| 20260509150702 | 64 | 68 | 1.0 | 5.0 | 0.00 | 0.00 | 0.00 | 46 | 1020.7 |
| 20260509150513 | 64 | 90 | 1.0 | 5.0 | 0.00 | 0.00 | 0.00 | 46 | 1020.7 |
| 20260509150322 | 64 | 90 | 1.0 | 2.0 | 0.00 | 0.00 | 0.00 | 46 | 1020.7 |
| 20260509150140 | 64 | 90 | 1.0 | 4.0 | 0.00 | 0.00 | 0.00 | 47 | 1020.7 |
| 20260509145959 | 64 | 90 | 1.0 | 4.0 | 0.00 | 0.00 | 0.00 | 46 | 1020.7 |
| 20260509145808 | 64 | 90 | 1.0 | 4.0 | 0.00 | 0.00 | 0.00 | 47 | 1020.7 |
| 20260509145622 | 64 | 90 | 1.0 | 3.0 | 0.00 | 0.00 | 0.00 | 45 | 1020.8 |
| 20260509145431 | 64 | 90 | 0.0 | 2.0 | 0.00 | 0.00 | 0.00 | 46 | 1020.7 |
| 20260509145348 | 64 | 90 | 0.0 | 2.0 | 0.00 | 0.00 | 0.00 | 45 | 1020.7 |
| 20260509145235 | 64 | 90 | 0.0 | 2.0 | 0.00 | 0.00 | 0.00 | 45 | 1020.7 |
| 20260509145042 | 64 | 90 | 1.0 | 0.0 | 0.00 | 0.00 | 0.00 | 46 | 1020.7 |
| 20260509144905 | 64 | 90 | 1.0 | 2.0 | 0.00 | 0.00 | 0.00 | 45 | 1020.7 |
| 20260509144715 | 63 | 90 | 2.0 | 5.0 | 0.00 | 0.00 | 0.00 | 45 | 1020.8 |
| 20260509144535 | 64 | 90 | 2.0 | 5.0 | 0.00 | 0.00 | 0.00 | 45 | 1020.8 |
| 20260509144335 | 64 | 90 | 2.0 | 5.0 | 0.00 | 0.00 | 0.00 | 46 | 1020.8 |
| 20260509144145 | 64 | 68 | 2.0 | 5.0 | 0.00 | 0.00 | 0.00 | 46 | 1020.8 |
| 20260509143955 | 63 | 68 | 2.0 | 5.0 | 0.00 | 0.00 | 0.00 | 46 | 1020.8 |
| 20260509143810 | 64 | 68 | 2.0 | 5.0 | 0.00 | 0.00 | 0.00 | 46 | 1020.8 |
| 20260509143758 | 64 | 68 | 2.0 | 5.0 | 0.00 | 0.00 | 0.00 | 46 | 1020.7 |
| 20260509143617 | 64 | 68 | 2.0 | 5.0 | 0.00 | 0.00 | 0.00 | 45 | 1020.7 |
| 20260509143422 | 64 | 68 | 1.0 | 2.0 | 0.00 | 0.00 | 0.00 | 45 | 1020.7 |
| 20260509143232 | 63 | 68 | 2.0 | 2.0 | 0.00 | 0.00 | 0.00 | 46 | 1020.8 |
| 20260509143055 | 64 | 68 | 2.0 | 3.0 | 0.00 | 0.00 | 0.00 | 46 | 1020.7 |
| 20260509142910 | 64 | 68 | 2.0 | 3.0 | 0.00 | 0.00 | 0.00 | 45 | 1020.7 |
| 20260509142720 | 64 | 90 | 3.0 | 3.0 | 0.00 | 0.00 | 0.00 | 46 | 1020.8 |
| 20260509142530 | 64 | 90 | 3.0 | 4.0 | 0.00 | 0.00 | 0.00 | 45 | 1020.8 |
| 20260509142340 | 64 | 90 | 3.0 | 5.0 | 0.00 | 0.00 | 0.00 | 46 | 1020.8 |
| 20260509142150 | 64 | 90 | 3.0 | 5.0 | 0.00 | 0.00 | 0.00 | 46 | 1020.8 |
| 20260509142014 | 65 | 68 | 3.0 | 5.0 | 0.00 | 0.00 | 0.00 | 46 | 1020.8 |
| 20260509141952 | 65 | 68 | 3.0 | 5.0 | 0.00 | 0.00 | 0.00 | 46 | 1020.8 |
| 20260509141830 | 65 | 68 | 2.0 | 5.0 | 0.00 | 0.00 | 0.00 | 45 | 1020.8 |
| 20260509141650 | 65 | 45 | 2.0 | 5.0 | 0.00 | 0.00 | 0.00 | 45 | 1020.8 |
| 20260509141456 | 65 | 22 | 2.0 | 5.0 | 0.00 | 0.00 | 0.00 | 45 | 1020.9 |
| 20260509141312 | 65 | 22 | 2.0 | 5.0 | 0.00 | 0.00 | 0.00 | 44 | 1020.9 |
| 20260509141120 | 65 | 292 | 2.0 | 5.0 | 0.00 | 0.00 | 0.00 | 44 | 1020.9 |
| 20260509140932 | 65 | 270 | 1.0 | 5.0 | 0.00 | 0.00 | 0.00 | 43 | 1020.9 |
| 20260509140755 | 65 | 45 | 1.0 | 5.0 | 0.00 | 0.00 | 0.00 | 43 | 1021.0 |
| 20260509140555 | 65 | 22 | 1.0 | 5.0 | 0.00 | 0.00 | 0.00 | 43 | 1021.0 |
| 20260509140415 | 66 | 22 | 1.0 | 5.0 | 0.00 | 0.00 | 0.00 | 43 | 1021.0 |
| 20260509140235 | 66 | 0 | 1.0 | 2.0 | 0.00 | 0.00 | 0.00 | 43 | 1021.0 |
| 20260509140050 | 66 | 338 | 1.0 | 2.0 | 0.00 | 0.00 | 0.00 | 42 | 1021.0 |
| 20260509135852 | 66 | 248 | 1.0 | 3.0 | 0.00 | 0.00 | 0.00 | 41 | 1021.0 |
| 20260509135705 | 66 | 248 | 1.0 | 3.0 | 0.00 | 0.00 | 0.00 | 42 | 1021.1 |
| 20260509135512 | 67 | 248 | 1.0 | 3.0 | 0.00 | 0.00 | 0.00 | 40 | 1021.1 |
| 20260509135325 | 67 | 22 | 1.0 | 3.0 | 0.00 | 0.00 | 0.00 | 41 | 1021.1 |
| 20260509135140 | 67 | 22 | 1.0 | 2.0 | 0.00 | 0.00 | 0.00 | 41 | 1021.2 |
| 20260509135000 | 67 | 22 | 1.0 | 3.0 | 0.00 | 0.00 | 0.00 | 41 | 1021.1 |
| 20260509134805 | 67 | 45 | 1.0 | 4.0 | 0.00 | 0.00 | 0.00 | 40 | 1021.1 |
| 20260509134610 | 67 | 45 | 1.0 | 4.0 | 0.00 | 0.00 | 0.00 | 40 | 1021.0 |
| 20260509134537 | 67 | 45 | 1.0 | 4.0 | 0.00 | 0.00 | 0.00 | 40 | 1021.1 |
| 20260509134420 | 67 | 45 | 1.0 | 5.0 | 0.00 | 0.00 | 0.00 | 42 | 1021.1 |
| 20260509134232 | 67 | 45 | 1.0 | 5.0 | 0.00 | 0.00 | 0.00 | 42 | 1021.1 |
| 20260509134040 | 67 | 68 | 1.0 | 3.0 | 0.00 | 0.00 | 0.00 | 39 | 1021.1 |
| 20260509133855 | 67 | 22 | 1.0 | 2.0 | 0.00 | 0.00 | 0.00 | 39 | 1021.2 |
| 20260509133655 | 67 | 22 | 1.0 | 2.0 | 0.00 | 0.00 | 0.00 | 40 | 1021.2 |
| 20260509133520 | 67 | 22 | 1.0 | 2.0 | 0.00 | 0.00 | 0.00 | 40 | 1021.2 |
| 20260509133327 | 67 | 45 | 1.0 | 2.0 | 0.00 | 0.00 | 0.00 | 41 | 1021.2 |
| 20260509133130 | 67 | 45 | 1.0 | 2.0 | 0.00 | 0.00 | 0.00 | 41 | 1021.3 |
| 20260509132935 | 67 | 292 | 2.0 | 2.0 | 0.00 | 0.00 | 0.00 | 40 | 1021.2 |
| 20260509132917 | 68 | 292 | 2.0 | 2.0 | 0.00 | 0.00 | 0.00 | 39 | 1021.3 |
| 20260509132758 | 68 | 292 | 2.0 | 3.0 | 0.00 | 0.00 | 0.00 | 40 | 1021.3 |
| 20260509132615 | 68 | 292 | 2.0 | 3.0 | 0.00 | 0.00 | 0.00 | 40 | 1021.3 |
| 20260509132420 | 68 | 292 | 2.0 | 3.0 | 0.00 | 0.00 | 0.00 | 39 | 1021.3 |
| 20260509132225 | 68 | 270 | 2.0 | 4.0 | 0.00 | 0.00 | 0.00 | 38 | 1021.4 |
| 20260509132045 | 68 | 22 | 2.0 | 4.0 | 0.00 | 0.00 | 0.00 | 38 | 1021.3 |
| 20260509131855 | 68 | 22 | 2.0 | 4.0 | 0.00 | 0.00 | 0.00 | 38 | 1021.4 |
| 20260509131700 | 67 | 22 | 3.0 | 5.0 | 0.00 | 0.00 | 0.00 | 39 | 1021.3 |
| 20260509131510 | 67 | 45 | 3.0 | 6.0 | 0.00 | 0.00 | 0.00 | 40 | 1021.3 |
| 20260509131310 | 67 | 45 | 3.0 | 6.0 | 0.00 | 0.00 | 0.00 | 40 | 1021.4 |
| 20260509131130 | 67 | 68 | 2.0 | 6.0 | 0.00 | 0.00 | 0.00 | 40 | 1021.4 |
| 20260509130930 | 67 | 22 | 2.0 | 6.0 | 0.00 | 0.00 | 0.00 | 41 | 1021.4 |
| 20260509130730 | 66 | 158 | 1.0 | 2.0 | 0.00 | 0.00 | 0.00 | 39 | 1021.4 |
| 20260509130532 | 66 | 90 | 1.0 | 2.0 | 0.00 | 0.00 | 0.00 | 40 | 1021.4 |
| 20260509130352 | 65 | 90 | 1.0 | 5.0 | 0.00 | 0.00 | 0.00 | 41 | 1021.5 |
| 20260509130201 | 64 | 90 | 1.0 | 5.0 | 0.00 | 0.00 | 0.00 | 42 | 1021.5 |
| 20260509130010 | 64 | 90 | 1.0 | 2.0 | 0.00 | 0.00 | 0.00 | 43 | 1021.6 |
| 20260509125832 | 63 | 90 | 2.0 | 2.0 | 0.00 | 0.00 | 0.00 | 44 | 1021.6 |
| 20260509125650 | 63 | 90 | 2.0 | 3.0 | 0.00 | 0.00 | 0.00 | 43 | 1021.6 |
| 20260509125509 | 63 | 225 | 2.0 | 4.0 | 0.00 | 0.00 | 0.00 | 45 | 1021.6 |
| 20260509125310 | 63 | 248 | 3.0 | 4.0 | 0.00 | 0.00 | 0.00 | 45 | 1021.6 |
| 20260509125130 | 63 | 248 | 3.0 | 6.0 | 0.00 | 0.00 | 0.00 | 45 | 1021.6 |
| 20260509124942 | 64 | 270 | 3.0 | 6.0 | 0.00 | 0.00 | 0.00 | 44 | 1021.6 |
| 20260509124800 | 64 | 270 | 2.0 | 6.0 | 0.00 | 0.00 | 0.00 | 44 | 1021.6 |
| 20260509124610 | 64 | 248 | 2.0 | 4.0 | 0.00 | 0.00 | 0.00 | 44 | 1021.7 |
| 20260509124426 | 64 | 225 | 2.0 | 4.0 | 0.00 | 0.00 | 0.00 | 43 | 1021.7 |
| 20260509124240 | 64 | 225 | 2.0 | 4.0 | 0.00 | 0.00 | 0.00 | 44 | 1021.7 |
| 20260509124053 | 64 | 292 | 2.0 | 3.0 | 0.00 | 0.00 | 0.00 | 43 | 1021.7 |
| 20260509123908 | 64 | 292 | 2.0 | 3.0 | 0.00 | 0.00 | 0.00 | 43 | 1021.8 |
| 20260509123720 | 65 | 248 | 1.0 | 3.0 | 0.00 | 0.00 | 0.00 | 43 | 1021.7 |
| 20260509123540 | 65 | 248 | 1.0 | 3.0 | 0.00 | 0.00 | 0.00 | 43 | 1021.8 |
| 20260509123504 | 65 | 248 | 1.0 | 3.0 | 0.00 | 0.00 | 0.00 | 44 | 1021.7 |
| 20260509123340 | 65 | 248 | 1.0 | 3.0 | 0.00 | 0.00 | 0.00 | 43 | 1021.7 |
| 20260509123138 | 65 | 248 | 1.0 | 3.0 | 0.00 | 0.00 | 0.00 | 42 | 1021.8 |
| 20260509122945 | 65 | 270 | 1.0 | 3.0 | 0.00 | 0.00 | 0.00 | 42 | 1021.8 |
| 20260509122751 | 65 | 45 | 1.0 | 2.0 | 0.00 | 0.00 | 0.00 | 42 | 1021.8 |
| 20260509122605 | 65 | 45 | 1.0 | 2.0 | 0.00 | 0.00 | 0.00 | 43 | 1021.8 |
| 20260509122425 | 65 | 45 | 2.0 | 4.0 | 0.00 | 0.00 | 0.00 | 42 | 1021.8 |
| 20260509122240 | 65 | 0 | 2.0 | 4.0 | 0.00 | 0.00 | 0.00 | 42 | 1021.8 |
| 20260509122052 | 65 | 0 | 2.0 | 4.0 | 0.00 | 0.00 | 0.00 | 41 | 1021.8 |
| 20260509121915 | 65 | 90 | 2.0 | 6.0 | 0.00 | 0.00 | 0.00 | 43 | 1021.8 |
| 20260509121720 | 65 | 90 | 2.0 | 6.0 | 0.00 | 0.00 | 0.00 | 44 | 1021.8 |
| 20260509121657 | 65 | 90 | 2.0 | 6.0 | 0.00 | 0.00 | 0.00 | 44 | 1021.8 |
| 20260509121525 | 64 | 45 | 1.0 | 5.0 | 0.00 | 0.00 | 0.00 | 42 | 1021.8 |
| 20260509121328 | 64 | 22 | 1.0 | 5.0 | 0.00 | 0.00 | 0.00 | 43 | 1021.8 |
| 20260509121135 | 64 | 22 | 1.0 | 2.0 | 0.00 | 0.00 | 0.00 | 43 | 1021.8 |
| 20260509120939 | 64 | 22 | 2.0 | 5.0 | 0.00 | 0.00 | 0.00 | 42 | 1021.8 |
| 20260509120545 | 64 | 22 | 3.0 | 7.0 | 0.00 | 0.00 | 0.00 | 44 | 1022.0 |
| 20260509120406 | 64 | 22 | 3.0 | 7.0 | 0.00 | 0.00 | 0.00 | 44 | 1021.9 |
| 20260509120220 | 64 | 45 | 3.0 | 7.0 | 0.00 | 0.00 | 0.00 | 43 | 1021.9 |
| 20260509120039 | 64 | 45 | 3.0 | 6.0 | 0.00 | 0.00 | 0.00 | 44 | 1021.9 |
| 20260509115956 | 64 | 45 | 3.0 | 6.0 | 0.00 | 0.00 | 0.00 | 43 | 1021.9 |
| 20260509115903 | 64 | 45 | 3.0 | 6.0 | 0.00 | 0.00 | 0.00 | 43 | 1021.9 |
| 20260509115712 | 64 | 68 | 3.0 | 6.0 | 0.00 | 0.00 | 0.00 | 44 | 1021.9 |
| 20260509115517 | 64 | 68 | 3.0 | 6.0 | 0.00 | 0.00 | 0.00 | 43 | 1021.9 |
| 20260509115325 | 64 | 45 | 3.0 | 5.0 | 0.00 | 0.00 | 0.00 | 45 | 1021.9 |
| 20260509115128 | 64 | 45 | 2.0 | 5.0 | 0.00 | 0.00 | 0.00 | 45 | 1022.0 |
| 20260509114939 | 64 | 68 | 2.0 | 5.0 | 0.00 | 0.00 | 0.00 | 43 | 1021.9 |
| 20260509114745 | 64 | 68 | 2.0 | 4.0 | 0.00 | 0.00 | 0.00 | 43 | 1021.9 |
| 20260509114550 | 64 | 68 | 2.0 | 6.0 | 0.00 | 0.00 | 0.00 | 43 | 1021.9 |
| 20260509114405 | 64 | 68 | 2.0 | 6.0 | 0.00 | 0.00 | 0.00 | 43 | 1022.0 |
| 20260509114335 | 64 | 68 | 2.0 | 6.0 | 0.00 | 0.00 | 0.00 | 43 | 1021.9 |
| 20260509114202 | 64 | 90 | 2.0 | 5.0 | 0.00 | 0.00 | 0.00 | 43 | 1022.0 |
| 20260509114003 | 64 | 90 | 2.0 | 3.0 | 0.00 | 0.00 | 0.00 | 42 | 1022.0 |
| 20260509113820 | 64 | 68 | 2.0 | 4.0 | 0.00 | 0.00 | 0.00 | 42 | 1021.9 |
| 20260509113625 | 64 | 68 | 3.0 | 5.0 | 0.00 | 0.00 | 0.00 | 43 | 1021.9 |
| 20260509113425 | 64 | 68 | 3.0 | 8.0 | 0.00 | 0.00 | 0.00 | 44 | 1022.0 |
| 20260509113225 | 64 | 68 | 3.0 | 8.0 | 0.00 | 0.00 | 0.00 | 45 | 1022.0 |
| 20260509113045 | 64 | 68 | 4.0 | 8.0 | 0.00 | 0.00 | 0.00 | 47 | 1021.9 |
| 20260509112900 | 64 | 90 | 3.0 | 7.0 | 0.00 | 0.00 | 0.00 | 45 | 1022.0 |
| 20260509112715 | 64 | 68 | 2.0 | 5.0 | 0.00 | 0.00 | 0.00 | 43 | 1022.0 |
| 20260509112552 | 64 | 22 | 1.0 | 5.0 | 0.00 | 0.00 | 0.00 | 44 | 1022.0 |
| 20260509112520 | 64 | 68 | 1.0 | 5.0 | 0.00 | 0.00 | 0.00 | 44 | 1022.0 |
| 20260509112325 | 63 | 45 | 2.0 | 3.0 | 0.00 | 0.00 | 0.00 | 43 | 1022.0 |
| 20260509112130 | 63 | 68 | 2.0 | 3.0 | 0.00 | 0.00 | 0.00 | 43 | 1022.0 |
| 20260509111940 | 63 | 270 | 3.0 | 2.0 | 0.00 | 0.00 | 0.00 | 44 | 1022.0 |
| 20260509111752 | 63 | 270 | 3.0 | 5.0 | 0.00 | 0.00 | 0.00 | 44 | 1021.9 |
| 20260509111612 | 63 | 270 | 4.0 | 9.0 | 0.00 | 0.00 | 0.00 | 44 | 1022.0 |
| 20260509111412 | 63 | 68 | 3.0 | 9.0 | 0.00 | 0.00 | 0.00 | 44 | 1022.0 |
| 20260509111215 | 63 | 22 | 2.0 | 9.0 | 0.00 | 0.00 | 0.00 | 45 | 1022.1 |
| 20260509111040 | 63 | 90 | 1.0 | 4.0 | 0.00 | 0.00 | 0.00 | 43 | 1022.1 |
| 20260509110855 | 63 | 90 | 1.0 | 3.0 | 0.00 | 0.00 | 0.00 | 44 | 1022.1 |
| 20260509110752 | 62 | 158 | 1.0 | 4.0 | 0.00 | 0.00 | 0.00 | 45 | 1022.1 |
| 20260509110700 | 62 | 158 | 1.0 | 4.0 | 0.00 | 0.00 | 0.00 | 45 | 1022.1 |
| 20260509110510 | 62 | 270 | 1.0 | 4.0 | 0.00 | 0.00 | 0.00 | 46 | 1022.1 |
| 20260509110322 | 62 | 248 | 2.0 | 3.0 | 0.00 | 0.00 | 0.00 | 45 | 1022.1 |
| 20260509110143 | 62 | 248 | 2.0 | 4.0 | 0.00 | 0.00 | 0.00 | 47 | 1022.1 |
| 20260509105945 | 63 | 248 | 2.0 | 4.0 | 0.00 | 0.00 | 0.00 | 47 | 1022.2 |
| 20260509105800 | 63 | 248 | 2.0 | 5.0 | 0.00 | 0.00 | 0.00 | 46 | 1022.1 |
| 20260509105601 | 63 | 292 | 2.0 | 5.0 | 0.00 | 0.00 | 0.00 | 46 | 1022.2 |
| 20260509105405 | 64 | 248 | 2.0 | 5.0 | 0.00 | 0.00 | 0.00 | 47 | 1022.2 |
| 20260509105210 | 64 | 292 | 1.0 | 5.0 | 0.00 | 0.00 | 0.00 | 46 | 1022.1 |
| 20260509105137 | 64 | 292 | 1.0 | 5.0 | 0.00 | 0.00 | 0.00 | 46 | 1022.1 |
| 20260509105025 | 64 | 292 | 1.0 | 5.0 | 0.00 | 0.00 | 0.00 | 50 | 1022.2 |
| 20260509104842 | 64 | 248 | 1.0 | 3.0 | 0.00 | 0.00 | 0.00 | 47 | 1022.2 |
| 20260509104705 | 64 | 315 | 1.0 | 3.0 | 0.00 | 0.00 | 0.00 | 46 | 1022.2 |
| 20260509104520 | 64 | 248 | 1.0 | 3.0 | 0.00 | 0.00 | 0.00 | 44 | 1022.2 |
| 20260509104325 | 64 | 315 | 1.0 | 2.0 | 0.00 | 0.00 | 0.00 | 44 | 1022.2 |
| 20260509104145 | 64 | 315 | 1.0 | 4.0 | 0.00 | 0.00 | 0.00 | 44 | 1022.2 |
| 20260509103950 | 64 | 45 | 1.0 | 5.0 | 0.00 | 0.00 | 0.00 | 44 | 1022.2 |
| 20260509103805 | 64 | 45 | 1.0 | 5.0 | 0.00 | 0.00 | 0.00 | 46 | 1022.3 |
| 20260509103620 | 64 | 45 | 1.0 | 5.0 | 0.00 | 0.00 | 0.00 | 44 | 1022.3 |
| 20260509103435 | 64 | 68 | 1.0 | 2.0 | 0.00 | 0.00 | 0.00 | 44 | 1022.3 |
| 20260509103341 | 64 | 68 | 1.0 | 2.0 | 0.00 | 0.00 | 0.00 | 45 | 1022.3 |
| 20260509103253 | 63 | 68 | 1.0 | 2.0 | 0.00 | 0.00 | 0.00 | 45 | 1022.3 |
| 20260509103054 | 63 | 68 | 1.0 | 3.0 | 0.00 | 0.00 | 0.00 | 47 | 1022.3 |
| 20260509102914 | 63 | 68 | 2.0 | 5.0 | 0.00 | 0.00 | 0.00 | 47 | 1022.3 |
| 20260509102736 | 63 | 68 | 2.0 | 5.0 | 0.00 | 0.00 | 0.00 | 47 | 1022.3 |
| 20260509102555 | 63 | 22 | 2.0 | 5.0 | 0.00 | 0.00 | 0.00 | 45 | 1022.3 |
| 20260509102415 | 63 | 315 | 2.0 | 5.0 | 0.00 | 0.00 | 0.00 | 46 | 1022.3 |
| 20260509102239 | 63 | 292 | 3.0 | 5.0 | 0.00 | 0.00 | 0.00 | 46 | 1022.3 |
| 20260509102052 | 64 | 292 | 4.0 | 5.0 | 0.00 | 0.00 | 0.00 | 47 | 1022.3 |
| 20260509101855 | 64 | 45 | 4.0 | 5.0 | 0.00 | 0.00 | 0.00 | 45 | 1022.4 |
| 20260509101727 | 64 | 202 | 3.0 | 8.0 | 0.00 | 0.00 | 0.00 | 47 | 1022.4 |
| 20260509101715 | 64 | 292 | 4.0 | 8.0 | 0.00 | 0.00 | 0.00 | 47 | 1022.4 |
| 20260509101528 | 64 | 158 | 3.0 | 8.0 | 0.00 | 0.00 | 0.00 | 48 | 1022.4 |
| 20260509101330 | 64 | 68 | 2.0 | 8.0 | 0.00 | 0.00 | 0.00 | 47 | 1022.3 |
| 20260509101147 | 64 | 68 | 2.0 | 5.0 | 0.00 | 0.00 | 0.00 | 45 | 1022.4 |
| 20260509101005 | 64 | 90 | 2.0 | 5.0 | 0.00 | 0.00 | 0.00 | 44 | 1022.3 |
| 20260509100820 | 64 | 180 | 1.0 | 3.0 | 0.00 | 0.00 | 0.00 | 43 | 1022.4 |
| 20260509100645 | 64 | 158 | 1.0 | 2.0 | 0.00 | 0.00 | 0.00 | 45 | 1022.4 |
| 20260509100459 | 63 | 202 | 1.0 | 3.0 | 0.00 | 0.00 | 0.00 | 46 | 1022.4 |
| 20260509100315 | 63 | 68 | 2.0 | 4.0 | 0.00 | 0.00 | 0.00 | 46 | 1022.4 |
| 20260509100120 | 63 | 68 | 3.0 | 4.0 | 0.00 | 0.00 | 0.00 | 45 | 1022.5 |
| 20260509095957 | 63 | 68 | 3.0 | 5.0 | 0.00 | 0.00 | 0.00 | 44 | 1022.5 |
| 20260509095922 | 63 | 68 | 2.0 | 4.0 | 0.00 | 0.00 | 0.00 | 44 | 1022.4 |
| 20260509095730 | 62 | 158 | 3.0 | 5.0 | 0.00 | 0.00 | 0.00 | 45 | 1022.5 |
| 20260509095535 | 62 | 248 | 3.0 | 6.0 | 0.00 | 0.00 | 0.00 | 46 | 1022.4 |
| 20260509095352 | 63 | 292 | 3.0 | 6.0 | 0.00 | 0.00 | 0.00 | 45 | 1022.5 |
| 20260509095215 | 63 | 248 | 2.0 | 6.0 | 0.00 | 0.00 | 0.00 | 44 | 1022.4 |
| 20260509095025 | 63 | 225 | 2.0 | 4.0 | 0.00 | 0.00 | 0.00 | 42 | 1022.5 |
| 20260509094830 | 63 | 315 | 2.0 | 5.0 | 0.00 | 0.00 | 0.00 | 41 | 1022.5 |
| 20260509094630 | 63 | 45 | 2.0 | 5.0 | 0.00 | 0.00 | 0.00 | 43 | 1022.5 |
| 20260509094440 | 63 | 270 | 2.0 | 5.0 | 0.00 | 0.00 | 0.00 | 45 | 1022.6 |
| 20260509094417 | 63 | 270 | 2.0 | 5.0 | 0.00 | 0.00 | 0.00 | 44 | 1022.6 |
| 20260509094305 | 63 | 292 | 2.0 | 3.0 | 0.00 | 0.00 | 0.00 | 45 | 1022.6 |
| 20260509094119 | 63 | 68 | 2.0 | 3.0 | 0.00 | 0.00 | 0.00 | 43 | 1022.5 |
| 20260509093937 | 62 | 68 | 2.0 | 5.0 | 0.00 | 0.00 | 0.00 | 45 | 1022.6 |
| 20260509093740 | 62 | 22 | 2.0 | 3.0 | 0.00 | 0.00 | 0.00 | 47 | 1022.6 |
| 20260509093558 | 62 | 45 | 3.0 | 5.0 | 0.00 | 0.00 | 0.00 | 51 | 1022.5 |
| 20260509093417 | 62 | 45 | 4.0 | 5.0 | 0.00 | 0.00 | 0.00 | 51 | 1022.6 |
| 20260509093235 | 63 | 68 | 4.0 | 5.0 | 0.00 | 0.00 | 0.00 | 51 | 1022.6 |
| 20260509093035 | 63 | 68 | 4.0 | 7.0 | 0.00 | 0.00 | 0.00 | 51 | 1022.6 |
| 20260509092838 | 62 | 68 | 4.0 | 7.0 | 0.00 | 0.00 | 0.00 | 51 | 1022.6 |
| 20260509092647 | 62 | 45 | 4.0 | 7.0 | 0.00 | 0.00 | 0.00 | 51 | 1022.6 |
| 20260509092455 | 62 | 112 | 3.0 | 5.0 | 0.00 | 0.00 | 0.00 | 49 | 1022.6 |
| 20260509092306 | 62 | 68 | 4.0 | 5.0 | 0.00 | 0.00 | 0.00 | 53 | 1022.7 |
| 20260509092125 | 62 | 90 | 3.0 | 6.0 | 0.00 | 0.00 | 0.00 | 48 | 1022.6 |
| 20260509091925 | 62 | 45 | 3.0 | 6.0 | 0.00 | 0.00 | 0.00 | 51 | 1022.7 |
| 20260509091742 | 62 | 68 | 3.0 | 6.0 | 0.00 | 0.00 | 0.00 | 55 | 1022.6 |
| 20260509091548 | 62 | 68 | 3.0 | 8.0 | 0.00 | 0.00 | 0.00 | 56 | 1022.7 |
| 20260509091352 | 62 | 90 | 3.0 | 8.0 | 0.00 | 0.00 | 0.00 | 53 | 1022.7 |
| 20260509091212 | 61 | 112 | 3.0 | 4.0 | 0.00 | 0.00 | 0.00 | 53 | 1022.7 |
| 20260509091012 | 61 | 90 | 4.0 | 5.0 | 0.00 | 0.00 | 0.00 | 53 | 1022.7 |
| 20260509090840 | 61 | 45 | 4.0 | 7.0 | 0.00 | 0.00 | 0.00 | 52 | 1022.7 |
| 20260509090656 | 61 | 45 | 4.0 | 7.0 | 0.00 | 0.00 | 0.00 | 54 | 1022.7 |
| 20260509090512 | 61 | 68 | 4.0 | 7.0 | 0.00 | 0.00 | 0.00 | 55 | 1022.7 |
| 20260509090311 | 61 | 68 | 4.0 | 6.0 | 0.00 | 0.00 | 0.00 | 55 | 1022.7 |
| 20260509090125 | 61 | 45 | 4.0 | 6.0 | 0.00 | 0.00 | 0.00 | 54 | 1022.7 |
| 20260509085925 | 61 | 68 | 3.0 | 7.0 | 0.00 | 0.00 | 0.00 | 56 | 1022.7 |
| 20260509085732 | 60 | 68 | 3.0 | 9.0 | 0.00 | 0.00 | 0.00 | 58 | 1022.6 |
| 20260509085535 | 60 | 68 | 2.0 | 5.0 | 0.00 | 0.00 | 0.00 | 57 | 1022.8 |
| 20260509085342 | 60 | 248 | 2.0 | 5.0 | 0.00 | 0.00 | 0.00 | 57 | 1022.7 |
| 20260509085147 | 60 | 45 | 2.0 | 5.0 | 0.00 | 0.00 | 0.00 | 58 | 1022.7 |
| 20260509085005 | 59 | 68 | 2.0 | 5.0 | 0.00 | 0.00 | 0.00 | 59 | 1022.7 |
| 20260509084805 | 59 | 90 | 3.0 | 5.0 | 0.00 | 0.00 | 0.00 | 61 | 1022.7 |
| 20260509084605 | 58 | 68 | 3.0 | 5.0 | 0.00 | 0.00 | 0.00 | 60 | 1022.7 |
| 20260509084420 | 58 | 90 | 3.0 | 5.0 | 0.00 | 0.00 | 0.00 | 63 | 1022.7 |
| 20260509084239 | 57 | 68 | 4.0 | 5.0 | 0.00 | 0.00 | 0.00 | 63 | 1022.8 |
| 20260509084040 | 57 | 68 | 5.0 | 7.0 | 0.00 | 0.00 | 0.00 | 65 | 1022.7 |
| 20260509083844 | 57 | 112 | 5.0 | 7.0 | 0.00 | 0.00 | 0.00 | 66 | 1022.7 |
| 20260509083652 | 57 | 90 | 5.0 | 7.0 | 0.00 | 0.00 | 0.00 | 66 | 1022.7 |
| 20260509083617 | 57 | 68 | 6.0 | 8.0 | 0.00 | 0.00 | 0.00 | 66 | 1022.8 |
| 20260509083455 | 57 | 90 | 6.0 | 8.0 | 0.00 | 0.00 | 0.00 | 67 | 1022.8 |
| 20260509083308 | 58 | 90 | 5.0 | 8.0 | 0.00 | 0.00 | 0.00 | 67 | 1022.7 |
| 20260509083130 | 58 | 68 | 5.0 | 8.0 | 0.00 | 0.00 | 0.00 | 66 | 1022.8 |
| 20260509082945 | 58 | 22 | 4.0 | 9.0 | 0.00 | 0.00 | 0.00 | 70 | 1022.8 |
| 20260509082750 | 58 | 68 | 4.0 | 9.0 | 0.00 | 0.00 | 0.00 | 67 | 1022.8 |
| 20260509082610 | 58 | 68 | 4.0 | 7.0 | 0.00 | 0.00 | 0.00 | 64 | 1022.8 |
| 20260509082415 | 58 | 45 | 4.0 | 6.0 | 0.00 | 0.00 | 0.00 | 64 | 1022.8 |
| 20260509082225 | 58 | 45 | 4.0 | 6.0 | 0.00 | 0.00 | 0.00 | 65 | 1022.8 |
| 20260509082035 | 58 | 68 | 4.0 | 6.0 | 0.00 | 0.00 | 0.00 | 63 | 1022.8 |
| 20260509081843 | 58 | 22 | 4.0 | 5.0 | 0.00 | 0.00 | 0.00 | 63 | 1022.8 |
| 20260509081731 | 58 | 90 | 4.0 | 6.0 | 0.00 | 0.00 | 0.00 | 64 | 1022.7 |
| 20260509081643 | 58 | 45 | 4.0 | 6.0 | 0.00 | 0.00 | 0.00 | 64 | 1022.7 |
| 20260509081507 | 58 | 45 | 4.0 | 7.0 | 0.00 | 0.00 | 0.00 | 65 | 1022.8 |
| 20260509081325 | 58 | 68 | 3.0 | 7.0 | 0.00 | 0.00 | 0.00 | 64 | 1022.8 |
| 20260509081125 | 58 | 0 | 3.0 | 7.0 | 0.00 | 0.00 | 0.00 | 63 | 1022.8 |
| 20260509080945 | 57 | 45 | 3.0 | 6.0 | 0.00 | 0.00 | 0.00 | 64 | 1022.8 |
| 20260509080745 | 57 | 45 | 4.0 | 6.0 | 0.00 | 0.00 | 0.00 | 62 | 1022.8 |
| 20260509080545 | 57 | 68 | 4.0 | 6.0 | 0.00 | 0.00 | 0.00 | 65 | 1022.8 |
| 20260509080350 | 56 | 68 | 4.0 | 6.0 | 0.00 | 0.00 | 0.00 | 67 | 1022.9 |
| 20260509080211 | 56 | 68 | 4.0 | 6.0 | 0.00 | 0.00 | 0.00 | 67 | 1022.8 |
| 20260509080032 | 56 | 68 | 4.0 | 5.0 | 0.00 | 0.00 | 0.00 | 65 | 1022.7 |
| 20260509075840 | 56 | 45 | 4.0 | 5.0 | 0.00 | 0.00 | 0.00 | 65 | 1022.8 |
| 20260509075652 | 56 | 68 | 3.0 | 6.0 | 0.00 | 0.00 | 0.00 | 65 | 1022.7 |
| 20260509075502 | 56 | 68 | 4.0 | 6.0 | 0.00 | 0.00 | 0.00 | 67 | 1022.7 |
| 20260509075325 | 56 | 22 | 4.0 | 6.0 | 0.00 | 0.00 | 0.00 | 68 | 1022.7 |
| 20260509075132 | 56 | 68 | 3.0 | 6.0 | 0.00 | 0.00 | 0.00 | 67 | 1022.7 |
| 20260509074939 | 56 | 68 | 3.0 | 6.0 | 0.00 | 0.00 | 0.00 | 70 | 1022.7 |
| 20260509074751 | 56 | 45 | 3.0 | 6.0 | 0.00 | 0.00 | 0.00 | 70 | 1022.7 |
| 20260509074612 | 56 | 68 | 3.0 | 4.0 | 0.00 | 0.00 | 0.00 | 68 | 1022.7 |
| 20260509074434 | 55 | 68 | 3.0 | 4.0 | 0.00 | 0.00 | 0.00 | 68 | 1022.7 |
| 20260509074321 | 55 | 68 | 3.0 | 6.0 | 0.00 | 0.00 | 0.00 | 67 | 1022.7 |
| 20260509074250 | 55 | 68 | 3.0 | 6.0 | 0.00 | 0.00 | 0.00 | 68 | 1022.7 |
| 20260509074111 | 55 | 68 | 2.0 | 6.0 | 0.00 | 0.00 | 0.00 | 68 | 1022.7 |
| 20260509073906 | 55 | 68 | 2.0 | 5.0 | 0.00 | 0.00 | 0.00 | 68 | 1022.7 |
| 20260509073728 | 55 | 45 | 2.0 | 4.0 | 0.00 | 0.00 | 0.00 | 67 | 1022.7 |
| 20260509073529 | 55 | 45 | 2.0 | 3.0 | 0.00 | 0.00 | 0.00 | 69 | 1022.7 |
| 20260509073350 | 55 | 45 | 1.0 | 2.0 | 0.00 | 0.00 | 0.00 | 69 | 1022.7 |
| 20260509073212 | 54 | 90 | 1.0 | 5.0 | 0.00 | 0.00 | 0.00 | 70 | 1022.8 |
| 20260509073020 | 54 | 45 | 1.0 | 5.0 | 0.00 | 0.00 | 0.00 | 70 | 1022.7 |
| 20260509072825 | 54 | 68 | 2.0 | 5.0 | 0.00 | 0.00 | 0.00 | 69 | 1022.7 |
| 20260509072639 | 54 | 68 | 1.0 | 5.0 | 0.00 | 0.00 | 0.00 | 69 | 1022.7 |
| 20260509072445 | 54 | 68 | 1.0 | 2.0 | 0.00 | 0.00 | 0.00 | 70 | 1022.7 |
| 20260509072300 | 54 | 68 | 2.0 | 2.0 | 0.00 | 0.00 | 0.00 | 71 | 1022.7 |
| 20260509072120 | 53 | 68 | 3.0 | 5.0 | 0.00 | 0.00 | 0.00 | 73 | 1022.7 |
| 20260509071940 | 54 | 68 | 3.0 | 5.0 | 0.00 | 0.00 | 0.00 | 74 | 1022.7 |
| 20260509071740 | 54 | 45 | 3.0 | 5.0 | 0.00 | 0.00 | 0.00 | 73 | 1022.7 |
| 20260509071548 | 54 | 68 | 3.0 | 5.0 | 0.00 | 0.00 | 0.00 | 74 | 1022.7 |
| 20260509071350 | 54 | 68 | 3.0 | 5.0 | 0.00 | 0.00 | 0.00 | 75 | 1022.7 |
| 20260509071210 | 54 | 68 | 2.0 | 5.0 | 0.00 | 0.00 | 0.00 | 73 | 1022.7 |
| 20260509071025 | 54 | 45 | 2.0 | 5.0 | 0.00 | 0.00 | 0.00 | 73 | 1022.6 |
| 20260509070843 | 54 | 45 | 2.0 | 5.0 | 0.00 | 0.00 | 0.00 | 74 | 1022.6 |
| 20260509070817 | 54 | 45 | 2.0 | 5.0 | 0.00 | 0.00 | 0.00 | 74 | 1022.7 |
| 20260509070646 | 53 | 22 | 1.0 | 5.0 | 0.00 | 0.00 | 0.00 | 73 | 1022.7 |
| 20260509070459 | 53 | 90 | 1.0 | 5.0 | 0.00 | 0.00 | 0.00 | 73 | 1022.6 |
| 20260509070300 | 53 | 90 | 1.0 | 5.0 | 0.00 | 0.00 | 0.00 | 74 | 1022.7 |
| 20260509070120 | 53 | 90 | 1.0 | 5.0 | 0.00 | 0.00 | 0.00 | 74 | 1022.6 |
| 20260509065932 | 53 | 90 | 1.0 | 3.0 | 0.00 | 0.00 | 0.00 | 73 | 1022.7 |
| 20260509065745 | 53 | 45 | 1.0 | 2.0 | 0.00 | 0.00 | 0.00 | 74 | 1022.7 |
| 20260509065550 | 53 | 45 | 1.0 | 2.0 | 0.00 | 0.00 | 0.00 | 74 | 1022.6 |
| 20260509065410 | 53 | 45 | 1.0 | 2.0 | 0.00 | 0.00 | 0.00 | 75 | 1022.6 |
| 20260509065259 | 53 | 45 | 1.0 | 2.0 | 0.00 | 0.00 | 0.00 | 75 | 1022.6 |
| 20260509065210 | 53 | 45 | 1.0 | 3.0 | 0.00 | 0.00 | 0.00 | 75 | 1022.6 |
| 20260509065030 | 53 | 45 | 1.0 | 3.0 | 0.00 | 0.00 | 0.00 | 75 | 1022.6 |
| 20260509064852 | 52 | 45 | 1.0 | 3.0 | 0.00 | 0.00 | 0.00 | 76 | 1022.6 |
| 20260509064700 | 52 | 45 | 1.0 | 2.0 | 0.00 | 0.00 | 0.00 | 75 | 1022.6 |
| 20260509064515 | 52 | 45 | 1.0 | 2.0 | 0.00 | 0.00 | 0.00 | 76 | 1022.6 |
| 20260509064325 | 52 | 45 | 1.0 | 2.0 | 0.00 | 0.00 | 0.00 | 77 | 1022.6 |
| 20260509064130 | 52 | 45 | 1.0 | 2.0 | 0.00 | 0.00 | 0.00 | 77 | 1022.6 |
| 20260509063945 | 51 | 45 | 1.0 | 2.0 | 0.00 | 0.00 | 0.00 | 77 | 1022.6 |
| 20260509063805 | 51 | 45 | 1.0 | 3.0 | 0.00 | 0.00 | 0.00 | 78 | 1022.6 |
| 20260509063617 | 51 | 45 | 1.0 | 3.0 | 0.00 | 0.00 | 0.00 | 78 | 1022.6 |
| 20260509063532 | 51 | 45 | 2.0 | 3.0 | 0.00 | 0.00 | 0.00 | 78 | 1022.6 |
| 20260509063432 | 51 | 45 | 2.0 | 3.0 | 0.00 | 0.00 | 0.00 | 78 | 1022.7 |
| 20260509063232 | 51 | 45 | 1.0 | 5.0 | 0.00 | 0.00 | 0.00 | 79 | 1022.6 |
| 20260509063040 | 51 | 45 | 2.0 | 5.0 | 0.00 | 0.00 | 0.00 | 80 | 1022.6 |
| 20260509062855 | 51 | 45 | 2.0 | 5.0 | 0.00 | 0.00 | 0.00 | 80 | 1022.6 |
| 20260509062702 | 51 | 22 | 2.0 | 3.0 | 0.00 | 0.00 | 0.00 | 80 | 1022.6 |
| 20260509062515 | 51 | 338 | 2.0 | 3.0 | 0.00 | 0.00 | 0.00 | 80 | 1022.6 |
| 20260509062335 | 51 | 338 | 2.0 | 3.0 | 0.00 | 0.00 | 0.00 | 81 | 1022.5 |
| 20260509062159 | 51 | 338 | 2.0 | 3.0 | 0.00 | 0.00 | 0.00 | 80 | 1022.5 |
| 20260509061959 | 51 | 22 | 2.0 | 4.0 | 0.00 | 0.00 | 0.00 | 81 | 1022.5 |
| 20260509061820 | 51 | 22 | 2.0 | 4.0 | 0.00 | 0.00 | 0.00 | 80 | 1022.5 |
| 20260509061741 | 50 | 22 | 1.0 | 4.0 | 0.00 | 0.00 | 0.00 | 80 | 1022.5 |
| 20260509061635 | 51 | 22 | 2.0 | 4.0 | 0.00 | 0.00 | 0.00 | 80 | 1022.6 |
| 20260509061455 | 51 | 22 | 2.0 | 4.0 | 0.00 | 0.00 | 0.00 | 80 | 1022.6 |
| 20260509061300 | 50 | 22 | 1.0 | 3.0 | 0.00 | 0.00 | 0.00 | 80 | 1022.6 |
| 20260509061112 | 50 | 22 | 1.0 | 3.0 | 0.00 | 0.00 | 0.00 | 80 | 1022.5 |
| 20260509060914 | 50 | 0 | 1.0 | 2.0 | 0.00 | 0.00 | 0.00 | 80 | 1022.5 |
| 20260509060730 | 50 | 0 | 0.0 | 2.0 | 0.00 | 0.00 | 0.00 | 81 | 1022.5 |
| 20260509060545 | 50 | 0 | 0.0 | 2.0 | 0.00 | 0.00 | 0.00 | 81 | 1022.5 |
| 20260509060400 | 50 | 0 | 0.0 | 2.0 | 0.00 | 0.00 | 0.00 | 81 | 1022.5 |